GFSGBSN_prec_cthk_000.txt.gz
RH
32 34 34 29 27 26 25 26 31 32 33 33 31 29 27 24 26 26 23 25 27 28 25 21 19 18 29 40 37 14 15 15 14 17 24 31 37 34 28 27 20 26 20 15 8 5 9
34 37 30 29 27 26 27 30 33 36 34 31 29 27 24 29 27 27 27 27 27 21 23 21 19 18 30 41 23 16 14 16 22 23 28 33 34 30 25 21 22 14 11 8 8 10 9
41 33 30 29 25 28 30 32 33 33 37 33 33 26 26 27 29 28 26 21 20 24 23 19 17 22 35 38 18 17 15 19 19 26 26 22 25 23 21 19 23 13 16 14 13 15 16
39 32 31 26 27 30 31 32 30 28 28 28 31 33 33 31 26 19 20 23 25 24 21 16 14 16 30 20 15 14 15 15 16 20 18 15 14 25 28 16 12 14 21 27 22 19 18
34 34 29 26 29 30 31 31 30 27 24 27 30 28 22 19 19 21 24 25 23 21 19 16 15 26 28 12 12 13 13 18 14 15 13 11 13 17 17 16 19 19 29 32 30 23 22
37 34 28 27 30 32 33 33 30 25 24 27 26 20 20 20 22 24 25 23 22 20 19 18 22 31 17 18 15 14 15 18 21 20 18 19 22 22 22 33 36 34 26 27 21 23 15
36 32 29 29 33 33 33 33 27 25 25 25 24 21 19 22 24 24 22 22 22 22 28 32 22 24 15 12 13 15 14 16 20 23 31 21 34 39 28 24 26 29 24 23 32 23 19
36 32 31 32 33 34 33 29 27 27 28 26 22 21 23 23 24 23 30 44 34 25 23 21 18 16 15 15 13 12 14 19 18 27 22 19 30 31 26 15 19 26 23 26 25 20 16
36 34 33 35 34 35 32 28 26 27 27 26 25 23 24 23 23 24 36 37 26 19 20 18 16 14 14 16 16 13 15 17 20 26 20 29 25 14 14 20 18 24 21 29 27 24 18
36 35 35 36 35 35 30 29 26 25 26 29 28 25 24 21 22 26 34 22 19 20 21 13 15 13 14 15 14 11 12 18 20 24 23 23 20 19 22 23 20 28 25 23 20 22 34
37 37 38 37 35 32 28 27 25 25 26 29 29 26 24 21 30 30 27 18 19 27 41 18 16 13 12 18 17 15 11 15 19 19 22 31 26 28 28 27 22 28 26 22 22 24 25
38 39 40 38 34 30 26 25 24 24 25 27 28 26 23 29 29 31 23 16 18 43 42 17 17 20 17 16 16 17 15 17 19 22 24 24 21 23 24 23 21 23 26 26 27 29 42
40 42 42 38 33 30 25 24 23 23 24 24 25 25 24 31 33 25 18 15 34 38 19 21 21 22 22 19 21 21 21 23 31 32 32 29 28 26 24 32 31 28 34 44 58 61 51
43 44 43 40 32 29 26 23 21 21 22 22 22 23 23 26 29 20 18 29 39 26 23 20 21 22 25 23 21 25 31 28 26 31 38 45 52 33 30 31 33 33 34 49 52 58 53
47 48 44 40 32 30 27 23 20 19 21 21 20 20 21 21 20 19 29 47 37 21 24 21 21 25 24 23 27 30 31 27 27 34 39 39 40 29 26 25 28 35 37 25 37 45 42
50 50 45 41 33 32 29 25 21 18 19 20 20 20 26 19 16 19 35 42 34 23 20 21 24 30 35 30 31 35 32 33 32 27 26 28 39 27 26 35 36 30 28 40 49 56 49
52 52 46 41 36 35 31 28 24 18 18 19 26 24 29 15 15 25 41 34 26 20 21 23 34 30 43 33 36 37 37 34 32 29 28 27 36 31 34 32 34 39 45 35 33 41 49
54 54 47 43 37 37 34 30 26 19 19 21 24 36 29 14 21 24 42 32 24 19 21 28 34 36 38 35 40 38 38 38 32 28 32 25 28 39 31 29 27 30 35 34 47 47 54
54 54 49 44 39 39 38 33 28 21 19 23 37 49 22 15 35 47 37 30 27 23 26 30 36 37 40 40 40 38 40 36 30 30 34 27 34 42 40 44 39 34 39 36 43 47 47
53 55 50 47 41 40 40 37 31 24 25 38 50 40 20 26 46 35 33 29 29 29 30 34 38 36 38 39 36 39 39 35 28 26 22 29 28 30 37 33 31 32 32 38 41 57 54
53 54 51 47 45 40 41 39 36 30 32 41 53 35 21 27 36 35 33 31 32 30 31 36 37 37 38 40 40 40 37 31 28 23 27 28 32 31 30 29 29 31 33 36 42 45 54
53 53 54 50 45 44 41 41 38 37 37 39 47 42 30 39 30 33 36 33 33 32 34 37 38 40 41 40 36 38 31 28 31 30 33 30 40 38 37 31 30 31 33 36 38 43 48
56 54 55 54 48 44 45 43 42 40 41 43 40 36 37 34 35 36 36 33 35 35 37 39 42 43 41 37 36 34 32 33 32 35 36 38 41 40 44 37 38 52 43 41 45 48 53
58 54 54 54 52 46 43 45 44 43 41 43 36 36 39 39 36 35 36 37 41 40 39 42 42 40 40 37 29 27 33 35 34 34 37 42 44 48 51 48 54 41 39 44 46 50 55
59 54 52 53 52 49 44 42 45 46 43 39 37 40 38 41 39 41 39 43 45 43 48 46 44 40 36 33 32 31 36 35 38 37 40 38 44 51 57 48 37 37 43 46 51 53 57
60 57 53 53 52 48 44 42 42 43 41 39 38 40 40 40 46 44 48 48 50 51 52 50 44 38 35 36 35 44 43 38 43 40 40 42 48 52 57 61 52 42 51 53 55 60 70
60 60 56 54 53 50 46 42 41 44 45 42 40 41 44 47 49 51 56 54 54 53 52 47 42 37 36 37 43 46 42 33 40 46 51 49 51 54 58 60 52 44 50 55 65 72 77
60 62 60 57 55 51 47 43 41 41 45 46 46 45 46 48 49 54 56 58 56 56 57 50 43 42 41 44 44 43 49 44 41 39 45 47 57 59 59 62 62 53 59 67 73 81 82
58 60 60 59 58 53 50 49 46 42 42 45 49 46 46 48 47 48 51 52 50 52 51 46 42 39 38 41 43 45 45 50 50 47 37 48 46 52 54 52 54 62 63 68 76 82 85

GFSGBSN_prec_cthk_003.txt.gz
RH
30 30 36 33 38 31 28 26 24 26 30 31 31 30 28 27 23 24 26 19 22 27 32 30 26 24 38 37 31 21 16 18 17 18 23 28 30 30 25 24 26 26 21 20 22 16 8
27 31 34 34 34 28 26 25 26 30 31 33 34 30 27 26 24 26 24 22 25 31 31 26 19 32 38 39 30 18 17 20 22 25 33 32 35 34 29 29 23 18 14 9 5 4 7
27 31 37 38 30 28 26 27 29 31 31 31 32 29 26 26 26 28 27 27 31 30 24 20 21 31 34 32 25 17 19 22 24 27 30 27 34 32 27 26 17 15 9 10 11 13 13
27 31 40 37 30 27 26 28 29 30 28 31 33 28 23 25 28 29 29 27 24 25 23 18 19 27 32 25 15 16 16 18 21 23 19 24 29 27 20 17 16 12 19 22 23 27 21
28 38 39 33 29 26 28 29 30 30 27 22 28 30 27 28 30 28 24 25 26 24 21 17 19 29 28 14 11 13 11 15 17 16 14 17 20 18 20 19 27 29 32 33 34 27 22
29 38 34 34 28 28 29 31 32 29 24 26 28 33 30 27 26 24 26 26 25 23 20 19 26 32 20 17 13 12 13 14 16 15 12 12 25 28 34 31 34 35 36 36 34 26 21
33 39 37 32 28 29 30 32 31 27 23 23 26 24 23 25 26 26 25 25 24 24 25 26 32 22 15 16 15 16 16 20 19 23 27 30 32 32 30 31 36 34 29 33 32 27 25
35 39 36 29 30 30 32 32 29 25 24 24 26 23 25 27 26 24 29 36 36 33 27 24 24 21 19 17 15 16 17 20 23 25 29 30 32 38 38 29 24 32 29 33 26 24 21
36 39 34 29 31 33 33 31 28 27 25 25 23 23 28 27 27 34 42 42 35 27 25 21 19 15 17 18 17 12 16 19 25 26 25 27 28 20 22 26 20 28 31 30 26 22 18
39 40 34 30 32 34 34 30 26 27 28 27 25 27 27 25 33 36 39 32 25 23 22 15 14 12 14 14 14 11 15 20 23 28 24 25 26 23 21 21 21 26 26 24 21 21 27
37 40 34 31 35 35 33 27 25 28 28 29 28 27 25 26 34 38 35 22 23 25 41 19 16 15 14 20 17 14 11 18 22 24 24 29 26 25 25 26 22 26 24 21 21 24 28
45 40 33 33 36 36 30 26 24 26 27 31 29 28 26 28 34 35 30 21 25 48 46 18 15 15 15 16 19 17 14 19 20 23 24 26 23 22 22 21 22 23 27 29 32 31 41
50 40 34 35 38 35 27 24 24 24 26 29 29 28 28 31 34 29 22 19 41 50 20 21 21 22 20 22 19 20 21 24 30 32 34 30 31 24 25 29 30 28 33 50 51 63 57
52 40 35 38 38 33 27 23 23 23 25 27 29 28 28 31 32 25 17 29 38 29 27 21 21 25 24 21 24 30 26 25 29 37 40 42 55 31 27 32 32 30 33 49 56 70 55
47 39 38 41 38 32 28 22 22 21 23 25 25 26 25 23 27 20 24 48 39 28 24 22 22 31 29 26 29 33 33 28 25 31 43 45 44 30 20 21 31 35 30 26 42 45 46
47 40 41 42 38 32 29 23 21 20 22 24 23 23 23 20 24 20 37 48 33 24 25 21 25 31 36 26 29 34 31 31 30 31 32 37 38 26 31 34 32 29 26 38 43 48 48
45 43 44 43 38 35 30 25 22 19 22 23 23 22 23 20 20 24 42 40 26 23 23 22 31 36 44 34 38 39 35 34 31 28 25 33 35 32 32 34 34 35 38 32 31 44 53
47 47 48 44 37 37 32 28 24 19 22 22 24 30 30 19 18 28 34 38 26 21 21 24 32 35 40 37 40 39 42 37 30 30 28 27 34 40 31 30 26 26 31 34 48 52 60
48 51 49 44 38 40 35 30 25 19 20 23 30 39 37 16 24 35 39 32 28 19 22 24 32 34 37 36 43 43 41 35 30 31 31 28 31 44 41 39 31 30 33 36 44 47 49
52 56 50 44 40 42 38 33 25 20 20 32 45 46 37 19 30 38 38 35 32 27 26 26 31 34 40 41 39 42 40 35 26 21 24 29 28 30 43 32 30 28 28 33 43 59 53
55 58 55 46 41 43 41 35 26 21 26 48 54 44 30 22 42 40 40 33 30 30 28 29 33 37 38 41 40 43 41 31 27 23 25 27 36 32 29 26 28 27 28 30 35 41 52
59 59 57 48 43 44 44 38 30 24 46 51 55 44 21 25 36 36 38 36 35 32 29 29 34 41 41 42 40 42 38 32 33 28 28 28 39 34 33 34 33 30 31 31 33 37 41
60 60 57 52 45 45 46 43 37 34 46 49 70 52 34 44 29 41 41 34 38 35 30 31 39 46 46 43 38 37 35 32 33 31 35 35 39 42 46 39 41 46 34 35 36 40 45
61 59 58 53 50 46 48 46 43 41 41 43 41 41 38 41 44 37 34 34 39 36 36 36 40 44 45 42 39 38 35 32 32 36 34 38 40 44 47 43 45 38 32 32 38 45 48
62 60 60 56 52 49 49 49 47 45 45 45 41 42 37 43 40 37 36 41 42 39 40 39 39 44 45 40 38 35 40 33 38 40 39 34 40 45 50 50 36 34 35 35 40 49 54
64 59 59 60 56 51 48 52 51 47 43 42 40 40 36 36 38 37 38 42 46 44 48 46 46 47 45 43 38 43 46 37 41 41 42 43 44 46 52 53 50 41 40 40 43 54 58
64 60 57 58 58 55 50 48 49 50 45 41 38 37 38 37 40 40 46 46 44 49 56 54 51 49 43 43 44 45 44 38 45 46 48 49 49 50 55 52 45 35 39 38 55 52 61
63 61 57 56 56 54 52 50 49 50 49 46 42 42 41 41 43 47 49 45 50 51 56 53 54 51 51 48 45 43 46 43 43 42 45 44 51 52 54 57 54 37 41 47 48 56 62
62 62 60 56 55 55 53 50 47 47 49 50 48 45 45 42 42 51 54 55 54 54 52 54 48 50 47 49 45 45 44 47 47 44 37 45 42 49 47 46 38 45 48 50 51 61 69

GFSGBSN_prec_cthk_006.txt.gz
RH
21 21 23 24 26 28 32 33 26 25 24 25 29 31 30 27 26 22 19 21 17 19 23 33 31 29 33 36 29 20 19 19 27 19 24 32 38 36 33 31 30 26 26 26 25 22 21
20 20 22 23 25 27 34 29 25 25 26 28 32 33 31 28 26 24 23 25 17 22 31 34 30 39 39 35 24 19 22 23 27 28 33 34 37 35 32 33 29 27 19 17 22 21 11
20 21 22 23 26 28 34 26 25 26 28 29 30 31 29 27 24 24 25 23 23 27 33 31 31 40 34 28 22 21 28 28 32 34 37 35 30 31 27 26 25 20 15 6 10 16 9
20 21 22 25 30 33 31 26 25 26 28 29 28 31 30 25 25 26 27 28 30 33 32 27 32 32 31 29 19 26 25 23 28 33 35 33 34 32 25 23 18 13 15 19 22 21 18
20 20 22 26 34 32 30 25 27 28 29 28 25 30 27 26 27 30 32 31 30 25 22 26 28 28 26 18 15 17 20 21 24 27 29 26 31 30 25 21 24 26 22 26 26 28 25
20 22 24 27 35 32 29 26 28 29 30 23 27 30 24 24 31 33 28 25 24 23 21 22 27 27 19 15 11 13 15 16 18 24 19 23 25 26 26 26 30 32 31 28 36 32 29
22 25 25 28 33 35 26 27 29 30 28 22 28 31 29 37 32 26 26 26 25 22 20 28 28 22 18 16 12 12 12 14 16 17 19 25 32 32 31 33 36 37 34 31 35 36 34
23 27 27 30 35 32 26 28 30 30 26 21 25 28 29 26 28 28 28 32 30 31 31 28 24 21 21 19 16 15 16 18 21 29 35 33 33 34 33 31 36 40 36 38 36 31 31
26 28 30 32 35 28 27 29 31 29 23 23 23 25 28 29 29 35 35 36 35 32 33 25 23 22 25 22 19 20 23 26 27 29 28 31 32 31 34 37 34 38 38 36 34 29 27
28 29 30 33 33 28 28 30 32 28 23 24 23 28 29 28 32 33 36 38 34 31 29 22 18 20 21 20 17 15 19 25 26 26 26 30 28 27 23 24 26 28 36 36 32 26 29
30 30 32 35 33 29 30 31 31 27 25 25 26 29 26 28 35 37 38 34 27 28 36 18 19 17 18 20 14 13 16 24 26 26 27 29 29 29 27 26 22 26 25 24 22 25 26
31 31 35 36 34 30 32 32 28 27 27 26 29 28 25 32 37 37 34 25 27 45 35 22 18 16 17 21 19 13 20 25 27 27 27 31 29 26 26 25 25 24 25 30 32 31 40
33 32 34 38 33 32 33 32 25 26 28 28 28 27 27 32 37 32 27 24 45 50 24 19 18 17 19 18 18 17 21 24 29 29 28 30 28 23 24 26 25 24 31 46 49 55 54
35 33 35 39 33 33 35 31 24 25 28 30 28 28 29 29 34 29 25 32 43 29 27 20 22 24 26 26 27 26 24 29 30 34 36 41 46 29 28 33 32 31 33 49 55 63 60
38 36 40 40 35 35 36 28 23 23 27 29 29 28 28 26 30 26 24 47 42 32 24 23 27 30 26 28 28 30 31 29 33 38 39 47 41 27 22 28 33 31 29 29 40 46 46
39 41 47 40 37 38 35 26 22 21 25 26 28 27 24 25 27 23 36 46 36 26 23 21 24 27 32 24 29 31 34 29 29 35 39 40 33 27 30 29 26 23 25 34 37 40 48
42 49 51 39 40 40 34 26 21 21 24 25 26 25 23 23 24 20 46 43 30 24 23 20 26 32 38 32 31 34 33 31 32 30 32 36 30 35 35 35 31 30 30 31 33 41 48
45 58 46 41 43 42 33 27 21 21 24 24 26 26 23 22 23 26 39 39 27 24 23 25 29 35 39 40 41 41 40 36 31 30 28 34 34 41 31 28 25 25 30 32 42 42 52
57 55 45 45 45 43 34 28 21 21 23 24 24 34 30 24 24 28 37 34 29 26 24 24 30 37 40 41 45 43 43 38 31 30 29 29 34 42 41 38 29 29 29 33 36 41 42
61 54 46 48 47 43 35 29 22 21 22 24 30 42 37 26 23 26 38 33 32 26 24 22 29 35 37 40 39 44 41 35 25 29 28 30 32 31 40 31 28 26 26 32 36 49 46
63 54 50 49 49 43 36 30 22 21 22 29 40 38 31 24 22 36 40 35 33 29 24 24 26 33 37 40 41 43 39 34 25 25 28 30 31 30 28 29 29 28 27 29 32 36 42
63 54 54 51 49 43 38 32 23 21 25 42 46 38 33 22 23 35 42 37 31 29 28 27 26 33 39 40 37 41 37 34 28 29 30 30 35 31 27 33 35 29 28 29 29 30 35
60 57 57 52 48 44 39 32 25 26 39 48 49 40 25 24 34 36 41 36 34 34 29 28 32 36 42 43 41 41 40 38 32 32 35 32 36 34 38 42 38 36 30 30 31 35 35
63 62 59 52 48 45 41 34 28 36 43 64 61 48 34 41 43 37 39 35 37 36 35 34 34 38 42 44 44 41 40 41 37 38 34 39 39 40 39 38 37 35 29 30 38 40 40
67 66 61 57 50 48 45 38 30 48 56 61 55 48 37 44 39 38 40 43 40 41 40 37 35 39 43 44 49 47 47 40 41 40 39 33 39 47 41 47 31 30 32 34 34 45 46
70 68 64 60 51 48 47 48 40 42 46 46 43 44 40 36 41 41 39 40 41 41 42 41 39 42 43 49 48 51 44 34 41 43 43 42 40 40 51 38 36 32 34 34 34 43 46
71 67 64 60 55 50 49 50 50 46 44 43 40 41 37 37 38 39 42 41 42 42 45 46 46 48 46 50 56 54 51 41 46 44 45 48 47 47 52 49 40 31 36 39 48 38 43
73 66 64 61 56 53 52 51 50 49 47 44 38 39 39 39 42 40 40 41 41 41 47 47 50 50 52 49 49 51 52 46 43 40 40 41 47 51 54 54 48 31 38 41 36 40 46
73 68 64 65 62 56 51 49 50 52 50 43 40 40 38 38 44 45 44 44 44 45 45 50 45 46 46 50 53 55 53 54 48 46 39 40 36 43 41 40 32 35 37 39 43 46 52

GFSGBSN_prec_cthk_009.txt.gz
RH
23 19 20 20 21 21 21 22 25 31 29 23 23 25 29 31 28 26 24 18 20 18 21 23 32 29 27 33 28 25 22 22 23 27 22 33 37 39 36 35 35 29 27 27 28 31 26
22 21 21 21 21 20 21 22 26 31 24 22 24 28 31 32 30 27 24 20 19 19 19 27 34 35 35 33 28 25 24 25 33 31 31 37 38 39 38 34 30 27 25 24 22 23 23
24 22 20 20 20 20 22 24 29 27 22 24 26 28 29 30 30 26 24 23 24 18 25 33 41 40 34 29 26 24 27 36 32 32 36 35 36 36 34 35 27 26 23 12 18 19 15
23 21 20 20 19 20 23 26 30 25 23 25 26 27 26 29 27 25 24 25 24 26 30 34 43 37 29 26 23 26 29 36 32 39 39 38 39 35 29 30 28 25 18 21 19 16 13
22 20 19 19 19 21 24 28 29 24 25 26 27 25 31 29 24 26 28 27 30 32 34 37 34 30 32 26 22 25 29 34 33 37 39 37 38 32 30 27 26 22 22 28 29 26 23
24 21 20 20 21 22 25 29 30 24 25 28 24 27 26 25 27 30 33 35 35 29 28 31 33 29 26 21 20 23 28 29 32 35 33 31 31 32 29 22 24 24 31 28 30 26 28
26 22 22 21 23 25 26 27 30 23 27 28 21 29 24 26 30 34 35 28 27 25 28 25 31 26 21 16 16 21 20 23 32 34 29 27 32 30 29 26 28 28 29 30 35 35 35
27 24 22 23 25 27 27 28 27 24 29 26 24 30 30 34 39 30 29 33 31 28 27 30 25 22 20 17 13 13 16 21 25 29 19 27 30 27 31 39 37 36 31 30 31 36 34
27 27 25 24 26 27 29 29 25 26 29 23 23 30 34 35 28 32 36 32 32 31 36 26 24 23 21 18 15 14 15 18 20 27 26 28 28 33 40 40 41 42 39 37 38 38 36
29 29 25 26 28 29 29 27 25 28 28 21 23 28 30 31 32 33 33 34 33 32 33 25 24 24 24 21 19 20 25 28 27 28 28 34 30 30 32 32 36 43 40 37 39 40 44
31 30 27 28 30 30 30 27 25 31 28 21 26 28 31 30 35 32 37 34 34 32 37 21 21 20 23 22 19 26 29 30 29 30 29 34 33 32 29 26 26 32 33 36 38 39 38
35 29 29 31 31 32 31 27 26 32 27 23 27 30 30 32 33 36 36 31 30 43 33 22 21 19 21 21 17 18 25 28 31 31 32 30 28 29 28 26 26 27 31 35 37 36 44
36 30 34 32 33 35 32 27 28 33 26 25 29 30 29 34 34 36 32 28 38 53 24 20 19 16 22 22 20 16 24 30 33 34 34 31 29 28 27 28 27 27 32 44 45 49 50
36 34 36 35 34 35 34 27 29 32 26 27 29 30 30 36 36 31 31 33 44 32 26 18 18 19 21 21 22 21 26 28 27 29 33 36 36 27 28 29 28 29 33 44 46 56 45
37 38 39 36 37 35 36 28 30 31 29 28 30 31 29 34 35 30 31 45 43 33 24 22 25 27 28 28 25 25 25 27 29 31 37 41 39 26 30 32 30 29 30 33 45 52 52
37 42 39 39 37 38 35 30 31 28 30 29 30 31 29 31 30 30 37 53 41 30 25 25 27 28 30 30 30 32 32 30 31 36 38 45 40 29 28 30 32 27 28 33 37 39 46
41 43 43 40 37 41 33 32 31 26 29 31 31 31 28 27 28 29 40 48 37 28 27 25 26 28 32 30 32 34 36 34 30 37 41 44 36 33 33 34 31 31 28 30 34 41 45
46 46 45 40 41 42 34 34 30 25 28 30 32 31 27 25 26 31 38 42 33 28 27 25 26 29 38 38 36 37 38 34 33 33 38 40 41 43 34 30 27 26 27 28 36 38 49
52 49 46 45 47 44 36 35 28 26 26 27 30 33 29 26 28 30 34 38 32 26 26 27 28 33 39 44 45 43 41 40 32 31 34 33 37 45 41 34 28 27 28 31 32 38 43
56 50 47 50 53 44 38 35 27 26 25 27 30 39 32 28 22 22 33 36 32 29 27 27 28 36 41 45 46 47 44 39 30 31 31 33 36 31 39 32 29 26 27 31 31 42 39
56 51 52 57 53 45 41 35 27 25 26 28 32 35 26 32 27 26 34 37 32 31 26 25 26 33 40 46 44 45 43 37 30 29 31 30 32 33 31 31 27 27 27 31 33 33 37
57 52 60 57 51 47 42 37 27 25 26 30 36 35 27 22 20 28 36 38 34 30 27 23 24 30 35 41 38 44 40 35 31 29 32 32 38 34 32 33 33 28 28 29 29 29 32
54 55 62 56 52 48 44 38 26 25 27 30 42 37 27 32 22 28 36 36 32 30 30 27 27 30 33 41 41 39 38 36 35 31 33 34 40 31 30 39 35 29 26 28 26 29 31
56 62 61 56 53 49 46 37 26 25 25 40 47 38 32 34 22 29 38 35 34 32 32 30 29 31 35 40 44 44 42 42 42 39 33 40 41 38 39 37 32 23 26 28 28 32 34
58 60 61 56 56 51 47 35 26 25 35 48 45 44 32 32 29 31 35 36 36 38 39 38 33 34 36 38 47 48 51 44 48 47 39 36 38 46 42 44 30 24 29 32 31 33 36
65 66 61 59 58 56 47 35 28 31 38 63 60 44 39 35 42 39 41 40 42 41 42 41 38 38 38 44 46 46 47 40 45 45 46 39 38 39 52 38 33 23 28 29 32 39 36
71 68 63 61 63 57 47 37 36 36 74 73 56 52 40 40 44 42 42 42 37 39 43 42 40 42 42 48 54 56 52 43 48 49 47 51 49 44 54 46 36 25 31 32 42 33 35
73 69 65 64 66 56 51 39 38 48 54 64 55 44 39 36 41 40 37 36 36 38 42 41 45 47 50 52 52 54 55 49 47 42 45 44 47 50 52 53 39 26 34 37 33 32 37
73 70 68 68 66 62 54 52 44 48 51 43 46 46 41 39 39 39 39 38 39 42 43 47 45 46 48 49 49 52 53 55 52 51 47 47 39 43 41 38 29 30 31 32 36 40 44

GFSGBSN_prec_cthk_012.txt.gz
RH
30 26 20 18 17 18 18 20 20 19 21 25 27 23 20 24 28 31 28 25 23 23 22 19 26 29 30 29 29 25 23 23 22 21 26 29 28 37 38 37 35 34 35 32 35 38 39
31 28 23 19 19 18 20 20 20 20 23 27 23 20 22 27 31 32 29 26 22 16 16 18 27 31 35 34 31 27 26 26 25 33 31 36 38 39 40 37 34 31 29 31 33 36 33
33 29 26 22 21 20 20 20 20 22 24 27 22 20 24 28 29 29 30 26 23 20 20 22 30 40 37 32 29 28 27 29 30 28 39 39 41 38 36 34 32 29 24 19 19 22 26
38 30 27 25 22 21 20 19 20 24 27 26 21 22 25 26 26 28 27 25 24 23 22 29 38 40 36 30 30 34 30 35 34 34 40 41 40 39 37 33 29 27 19 14 18 16 14
44 34 28 25 23 21 20 20 21 25 28 26 22 23 25 27 29 27 25 25 26 27 29 37 42 40 34 32 30 29 33 38 38 41 42 41 39 36 34 32 29 29 26 22 18 16 17
44 36 28 23 22 21 21 22 24 27 26 24 22 24 23 27 28 26 27 31 31 33 35 43 40 32 33 29 28 31 35 38 40 41 39 40 38 36 33 29 29 24 24 27 26 24 28
46 42 29 25 22 22 22 24 26 28 26 23 24 24 25 26 25 30 34 37 37 33 30 30 33 33 30 29 25 30 32 36 40 38 40 40 38 38 35 30 26 25 30 36 32 25 35
47 46 28 26 23 24 23 24 27 27 25 23 24 23 25 24 30 37 42 38 33 32 32 30 32 25 23 22 24 29 29 35 38 39 38 35 36 35 35 31 30 29 32 34 34 34 36
50 48 30 26 24 25 23 25 27 27 23 24 25 23 28 32 41 45 35 32 32 32 35 31 27 24 21 18 18 23 24 32 37 37 30 26 30 31 33 31 34 37 32 34 37 39 41
55 51 31 25 26 26 25 27 28 27 23 25 25 22 32 39 39 37 31 31 32 32 33 27 25 24 21 17 16 18 19 30 35 36 36 31 33 35 34 39 41 40 40 36 42 43 50
56 56 31 24 27 27 27 28 28 26 24 25 23 23 34 33 36 36 33 31 29 34 39 23 24 24 25 21 18 19 22 23 28 27 25 28 31 33 39 35 32 37 39 38 40 43 45
63 61 31 24 29 28 29 29 28 26 25 26 24 28 33 35 37 38 31 29 32 45 36 24 26 27 28 26 21 24 27 28 29 31 29 31 33 32 31 30 27 27 33 40 43 43 47
85 67 31 28 31 30 32 30 29 27 27 26 25 31 32 37 37 34 29 32 41 52 25 23 22 21 23 25 26 29 32 33 33 35 37 34 33 30 29 29 28 29 33 45 46 53 50
82 68 36 33 33 34 34 31 30 29 28 28 28 33 30 38 37 34 34 34 41 38 25 20 19 18 24 23 21 22 27 32 32 33 39 40 38 29 27 29 29 29 34 45 45 53 43
97 72 43 39 36 38 35 34 31 31 30 30 31 34 34 37 36 35 33 41 42 34 25 19 20 22 24 24 24 23 26 29 29 27 31 37 34 26 29 29 32 31 34 35 47 50 51
99 70 47 44 41 40 38 36 32 33 32 30 34 36 33 34 35 35 35 42 44 34 26 22 23 25 28 28 28 26 28 30 29 30 32 37 38 31 31 36 33 33 32 35 40 37 43
94 66 48 42 45 45 41 38 35 35 36 32 39 36 32 32 34 32 40 40 42 33 27 26 28 30 30 31 32 34 33 32 30 30 35 44 43 36 32 33 36 33 31 31 33 40 43
97 61 48 43 51 46 43 40 36 37 39 34 40 35 33 31 34 36 38 41 40 32 31 30 28 29 36 40 39 37 36 36 32 32 38 47 48 50 34 34 33 30 29 28 35 30 46
92 62 51 49 50 47 45 43 37 37 38 36 35 36 36 31 34 36 37 42 39 30 31 30 29 31 40 47 49 41 40 38 34 32 38 42 45 52 40 35 31 27 30 30 30 36 40
83 64 49 49 48 46 46 44 38 37 36 41 35 40 39 34 27 27 34 39 38 32 31 30 31 31 41 48 48 50 47 40 38 34 33 36 39 36 39 31 31 28 29 28 29 40 37
72 62 50 48 46 46 49 43 40 37 34 39 35 37 34 39 32 26 32 38 36 34 30 29 30 30 40 49 48 49 46 40 38 35 35 33 36 36 35 33 30 26 25 30 30 29 33
70 57 51 49 48 49 49 43 42 36 33 38 34 36 33 31 26 28 32 34 35 33 31 27 28 31 33 43 43 46 40 39 35 36 35 34 37 35 36 36 34 29 27 27 29 28 32
69 57 54 52 51 51 51 44 42 35 33 37 34 33 32 32 30 30 31 35 37 33 32 30 26 27 29 36 42 41 38 37 35 34 34 31 39 32 30 38 33 28 23 25 25 25 26
66 58 57 55 56 60 51 44 41 34 32 34 33 36 37 34 31 27 27 32 39 33 33 34 29 28 31 35 41 43 42 42 41 41 36 36 37 37 40 36 31 20 23 24 25 26 27
62 60 58 61 62 59 50 46 39 32 32 33 37 43 39 38 29 24 29 35 38 37 36 36 32 30 32 35 42 46 50 44 46 47 41 37 36 42 40 43 29 22 27 30 31 27 29
61 59 60 65 63 55 51 45 36 29 32 33 46 44 43 37 31 22 32 37 41 40 40 40 38 34 34 38 40 46 48 41 41 45 47 42 38 37 47 37 33 25 26 29 29 37 28
61 61 63 68 62 56 52 43 32 28 32 45 53 50 44 38 30 27 34 37 36 35 43 41 40 39 36 41 48 46 43 41 44 48 50 53 50 43 54 44 35 25 28 30 39 31 29
62 63 71 70 62 59 51 37 30 30 41 45 52 50 52 43 42 40 37 37 38 38 42 42 43 43 42 46 49 51 52 48 45 41 45 47 50 52 52 52 36 26 32 36 31 29 30
62 68 71 69 65 61 47 37 32 37 42 78 73 60 50 46 51 49 46 43 42 36 36 42 41 41 41 46 48 50 51 50 46 45 43 47 43 46 44 42 34 35 36 36 36 38 37

GFSGBSN_prec_cthk_015.txt.gz
RH
42 33 29 28 24 20 19 18 18 19 20 20 20 24 24 21 19 23 28 29 26 23 21 21 20 23 30 30 28 27 26 24 24 21 19 18 21 27 32 41 39 39 38 38 40 43 45
52 41 35 32 28 22 21 20 19 19 21 20 22 25 23 20 22 26 29 29 26 24 18 17 20 28 31 35 30 28 26 26 26 23 28 27 33 40 42 38 36 35 36 32 35 41 42
58 51 40 36 31 24 23 21 20 20 21 20 24 27 22 21 24 27 26 26 27 23 20 16 20 29 36 32 30 27 28 28 32 34 35 38 39 38 40 38 35 31 28 25 34 35 38
51 54 44 39 35 25 24 23 22 20 21 21 26 26 22 23 26 25 26 26 25 24 22 22 25 36 36 32 27 30 31 31 38 41 40 41 41 42 41 38 32 30 24 17 20 30 32
46 52 47 40 35 28 25 24 22 21 22 23 27 25 22 25 25 26 28 25 25 24 25 26 35 40 41 29 30 37 36 36 40 44 43 45 41 40 38 32 31 29 25 19 21 23 20
34 45 49 42 34 30 26 24 21 22 23 25 27 24 24 25 25 25 26 25 29 29 30 34 39 45 40 32 34 37 35 39 41 44 45 43 40 36 35 32 31 28 29 25 21 20 22
37 40 49 48 39 31 24 23 21 23 25 27 26 23 25 24 25 25 28 33 34 35 35 39 42 34 32 33 33 34 33 42 46 41 42 45 39 36 34 31 28 24 24 29 30 32 38
36 35 43 46 44 31 25 22 22 24 25 27 26 23 24 25 23 28 34 40 42 37 34 35 35 33 32 29 30 32 31 40 47 42 44 40 39 38 36 33 31 29 30 39 37 36 34
26 36 38 46 43 32 26 24 24 25 27 27 24 23 24 23 25 36 41 44 40 32 35 35 35 31 28 30 27 30 32 38 41 41 41 41 38 38 37 37 38 38 39 39 40 42 39
25 39 33 44 43 35 24 25 26 26 28 27 23 23 23 28 38 44 40 35 35 36 35 32 30 28 27 22 26 25 30 34 41 42 40 33 31 38 38 40 40 37 39 38 44 45 47
22 34 38 41 46 38 23 25 28 28 29 28 23 22 25 34 43 33 34 37 33 38 43 28 27 26 25 19 21 24 26 32 39 41 40 39 35 33 38 40 38 38 42 41 38 37 38
18 30 37 38 50 41 24 25 30 30 30 28 23 23 28 39 36 33 35 33 32 41 41 24 26 26 24 23 19 22 27 29 38 41 40 36 31 34 33 36 39 40 37 41 42 39 39
20 27 48 42 50 42 24 27 32 32 31 28 24 25 30 42 35 37 33 32 37 46 29 26 27 30 30 26 22 26 30 32 32 38 36 31 33 35 33 37 34 31 33 39 41 45 39
23 29 49 49 54 41 26 30 34 33 32 29 26 29 34 41 38 35 33 31 37 38 32 26 25 28 32 30 27 29 31 33 31 31 36 36 33 30 30 31 29 30 30 39 43 45 38
31 32 56 65 63 37 29 35 36 35 34 30 29 32 36 40 39 36 33 42 38 40 27 24 24 25 26 26 25 30 32 33 33 33 34 38 36 31 29 30 30 31 31 33 41 44 42
42 37 58 67 67 37 34 41 39 37 36 31 31 35 36 41 38 35 39 39 39 37 29 22 22 22 25 26 26 24 26 29 29 29 29 31 34 31 30 33 34 33 31 36 39 41 38
45 39 62 67 62 40 43 47 44 41 37 35 37 40 41 39 38 34 42 35 43 37 30 22 22 26 26 27 30 28 28 29 30 30 30 31 37 40 36 33 36 35 35 34 32 36 31
52 47 75 99 56 46 51 50 50 45 41 39 42 45 42 37 39 38 39 39 43 36 29 28 26 31 30 34 36 34 35 32 32 32 31 34 46 49 40 33 33 35 32 28 31 30 37
58 59 98 92 59 53 58 53 50 48 43 40 47 47 45 35 38 39 36 39 40 35 32 30 29 29 36 44 47 42 36 35 35 31 33 36 50 53 43 36 34 33 32 30 30 33 36
57 85 98 81 59 61 58 53 51 50 48 47 50 51 47 36 32 33 36 38 43 37 34 32 33 32 38 47 51 54 46 40 38 38 34 37 44 43 40 34 32 32 32 29 27 32 31
81 98 89 72 67 69 57 55 52 52 52 53 49 46 38 42 34 31 33 38 45 39 34 32 33 33 35 47 50 52 51 46 44 43 38 34 37 39 38 36 32 28 30 31 27 26 29
95 98 84 74 72 67 59 56 50 53 53 56 46 44 35 35 32 31 33 39 45 40 37 32 32 34 33 42 47 52 47 42 35 43 38 35 37 37 41 37 34 30 27 26 28 28 26
96 89 83 79 74 62 58 54 51 49 50 56 48 39 30 39 37 33 32 33 42 40 38 34 29 32 34 36 42 43 41 37 37 38 37 36 39 33 32 36 32 30 24 24 24 25 25
88 87 83 77 64 59 57 54 48 48 46 50 49 40 35 39 38 31 29 30 38 40 38 35 31 29 31 32 33 40 42 41 40 39 34 35 34 32 36 35 34 21 23 24 24 24 24
95 84 78 66 60 57 54 53 50 48 46 46 44 36 34 42 35 31 30 32 40 44 41 36 35 32 32 33 38 41 47 45 48 46 41 36 36 40 40 34 26 19 22 27 30 25 25
89 76 67 60 55 55 54 52 50 49 46 48 45 37 40 40 36 29 31 30 39 41 41 39 37 34 34 37 38 42 45 39 37 44 46 43 41 39 44 36 35 23 22 28 29 33 24
78 69 63 58 57 57 56 53 52 48 46 48 54 41 44 44 37 31 28 30 35 38 39 40 40 38 34 37 43 41 38 38 37 41 49 51 48 42 47 43 34 26 29 31 35 29 27
74 68 62 62 62 63 59 55 50 45 43 44 43 52 53 49 42 35 28 28 34 37 40 41 43 42 40 42 44 43 45 42 41 38 44 41 45 47 48 47 41 30 36 39 35 34 34
67 64 63 68 67 62 58 51 45 40 41 40 55 60 59 52 42 36 35 38 41 38 33 39 41 41 40 43 42 45 51 50 45 43 40 41 39 42 40 38 32 34 36 36 37 38 39

GFSGBSN_prec_cthk_018.txt.gz
RH
46 55 52 40 32 29 28 25 22 20 19 17 17 20 20 22 23 18 19 25 27 27 24 22 19 20 22 30 31 27 27 26 26 23 22 23 23 24 24 35 38 40 42 42 45 46 52
44 47 54 52 38 32 29 27 24 22 21 19 18 20 21 23 23 17 20 25 26 25 24 22 17 21 27 34 30 27 24 25 26 26 26 25 24 27 38 40 40 40 41 38 42 45 41
39 40 47 56 51 37 33 31 28 24 22 21 20 21 23 24 21 18 22 24 24 25 24 20 16 18 28 35 30 29 27 28 34 30 29 29 32 36 39 43 40 38 36 36 37 46 48
29 38 38 47 56 46 35 33 30 26 23 23 22 23 25 26 19 20 22 24 25 25 23 22 22 24 35 34 27 30 30 32 38 37 37 35 40 40 40 38 36 33 31 28 32 37 42
30 30 36 35 48 49 37 33 31 27 24 24 23 23 25 23 20 21 24 25 25 25 25 24 26 31 37 33 29 34 31 38 41 43 43 40 44 45 41 37 34 31 23 19 23 32 34
17 28 31 36 36 50 41 32 30 27 25 25 24 24 26 21 21 22 25 25 26 28 29 28 31 41 38 34 32 37 36 43 45 47 47 47 44 42 38 36 32 30 31 20 20 26 22
19 23 27 39 32 44 44 33 29 26 26 27 25 25 25 21 21 23 23 27 32 34 30 31 35 40 36 34 36 38 40 47 46 49 51 45 40 37 37 34 32 28 30 29 25 23 24
18 17 25 26 31 33 45 37 29 26 26 28 27 25 24 20 21 22 25 31 35 36 37 37 42 37 31 32 35 38 39 46 45 47 44 43 44 37 38 35 30 26 28 38 38 37 36
16 15 22 28 32 30 42 39 30 26 26 29 27 27 23 19 21 23 32 38 41 41 42 37 37 32 31 30 35 36 42 45 44 42 45 46 43 42 39 36 35 35 36 40 40 36 35
15 15 17 27 32 30 39 39 30 26 27 30 28 27 23 19 24 31 38 38 40 37 36 34 32 30 29 29 29 34 39 46 47 44 47 45 40 40 40 38 38 38 37 37 41 40 40
17 17 12 25 27 36 39 40 30 26 28 31 29 26 23 21 32 37 39 39 36 36 41 32 29 29 29 30 28 28 31 38 42 45 42 39 34 35 39 38 38 41 36 35 32 37 36
16 20 20 20 24 31 36 45 31 27 30 33 29 25 23 25 40 39 40 36 35 41 40 27 26 27 23 25 27 27 28 33 41 45 44 41 41 37 34 35 38 39 34 37 42 41 38
21 20 21 19 26 34 33 45 32 28 33 34 30 25 24 32 44 37 38 36 35 41 30 24 24 26 27 26 23 26 27 31 38 41 44 41 39 37 32 36 36 36 39 39 40 40 37
29 21 22 20 29 37 44 46 32 29 37 35 31 26 27 37 46 43 36 33 32 27 29 24 25 30 32 26 22 23 29 33 34 37 43 39 38 33 33 36 35 37 36 34 35 37 31
38 31 32 26 29 33 48 53 32 30 39 37 33 27 31 37 47 43 35 38 27 31 31 26 27 33 33 31 25 27 32 32 33 31 34 32 33 31 31 31 31 33 31 31 34 37 35
47 41 39 35 30 42 46 59 34 33 41 38 33 29 34 40 47 43 36 31 26 35 31 25 24 26 29 29 26 29 31 32 34 34 33 33 36 31 31 30 30 29 29 32 31 38 34
53 45 47 46 34 42 46 59 38 39 46 41 39 38 39 43 50 48 36 28 30 39 31 25 23 23 23 26 25 24 26 29 28 27 25 25 28 33 32 30 31 33 31 30 31 34 26
57 51 54 48 42 65 60 63 39 46 50 45 42 43 42 48 54 39 31 28 34 39 32 26 23 24 22 22 24 25 24 25 25 26 28 27 32 39 40 36 30 32 33 30 28 28 31
65 59 53 54 46 58 64 64 43 50 49 44 42 50 52 56 49 41 32 31 38 39 32 29 24 29 30 32 35 35 32 33 31 30 31 29 32 40 42 40 35 31 31 29 27 28 30
66 59 61 57 58 84 80 60 49 57 54 50 46 58 57 54 42 34 31 33 37 40 34 31 31 30 32 36 41 46 37 33 34 34 33 31 33 40 46 38 34 34 31 28 26 27 23
70 60 56 56 85 98 85 64 60 68 58 49 47 57 51 52 41 34 32 33 38 41 37 35 31 30 30 40 46 49 47 41 41 39 38 33 35 38 40 37 33 29 27 27 25 24 26
68 60 53 84 97 91 87 74 77 74 63 54 53 59 58 43 37 33 34 36 38 42 37 34 33 32 33 37 40 47 44 45 43 42 39 36 37 36 38 35 34 31 26 24 25 23 23
64 57 85 92 97 87 86 81 80 70 59 55 53 56 50 46 36 34 30 36 39 45 40 35 33 33 34 36 38 47 47 43 40 36 40 38 37 35 32 34 34 37 26 23 22 23 23
68 73 88 92 79 86 80 79 76 66 57 54 55 53 46 48 38 33 30 34 43 44 42 37 34 32 35 36 35 35 39 40 38 36 36 38 35 35 36 34 49 21 21 21 22 22 22
73 86 97 98 94 94 80 81 72 64 61 57 52 49 41 50 39 36 32 32 41 46 45 41 38 34 32 33 34 35 39 45 47 42 38 35 34 41 48 34 25 18 20 21 25 21 23
92 98 95 95 98 92 83 78 66 62 60 59 52 47 42 42 37 35 32 33 39 45 44 43 40 37 34 36 39 42 41 35 39 42 44 41 37 38 43 52 54 25 24 28 28 28 23
98 98 94 95 89 84 79 68 60 57 57 59 59 51 45 39 39 37 33 33 35 42 43 42 40 38 35 39 49 45 39 34 34 38 47 44 46 49 43 49 32 26 26 29 32 31 29
92 97 93 86 81 77 68 62 57 54 54 57 52 52 47 46 45 41 34 31 31 39 40 40 42 39 40 45 47 40 44 35 34 33 38 39 44 49 44 52 49 27 32 37 35 33 33
93 88 82 77 72 67 62 59 55 52 55 57 47 47 42 44 52 45 37 31 29 35 40 41 38 35 37 42 42 43 47 46 40 41 36 38 37 38 35 34 31 33 34 36 36 36 37

GFSGBSN_prec_cthk_024.txt.gz
RH
31 34 36 44 48 49 56 53 40 33 30 28 27 25 24 22 21 18 18 18 18 14 16 18 20 19 18 25 26 34 26 21 21 22 28 34 34 33 36 36 32 30 40 37 44 52 52
21 25 32 35 40 45 47 54 53 39 33 30 28 27 26 25 23 19 19 19 17 15 17 19 20 20 20 27 33 31 24 21 21 24 28 30 37 38 41 37 32 31 38 35 41 50 49
21 21 22 31 36 38 42 46 54 47 37 32 30 29 28 27 24 20 20 19 16 16 19 19 21 19 21 22 32 37 24 23 26 28 33 34 38 35 42 43 46 45 38 34 37 51 46
18 18 19 20 31 35 38 38 49 54 41 36 32 31 30 29 26 22 20 19 16 17 19 19 20 20 22 26 31 34 31 33 33 33 38 44 38 37 40 48 42 43 40 43 38 44 40
17 17 17 16 18 28 34 38 37 53 47 38 35 33 31 30 26 23 21 18 16 17 17 18 22 26 32 31 30 30 32 39 42 46 33 34 34 37 47 48 46 44 47 42 35 41 48
14 14 15 16 14 19 27 28 35 42 50 41 37 33 31 31 27 24 21 17 16 16 17 19 22 28 26 33 33 36 35 40 43 44 41 34 38 45 48 49 50 43 40 42 36 28 47
16 15 14 15 14 14 24 27 32 35 47 41 36 32 31 31 28 25 21 17 27 32 23 21 31 34 39 37 35 32 34 40 47 51 48 40 45 50 47 52 45 43 39 34 31 32 31
20 18 16 15 14 14 17 25 25 35 46 42 34 31 30 31 29 25 21 23 39 42 38 24 27 33 36 37 34 34 33 44 46 55 59 47 47 52 52 47 44 37 37 31 29 18 28
22 24 19 16 17 14 13 20 28 31 40 46 34 29 30 32 30 24 20 17 31 31 35 29 27 33 34 36 30 35 35 41 48 50 56 54 56 51 48 44 38 37 39 38 35 17 16
21 23 24 20 17 15 11 12 22 26 36 42 36 29 30 34 31 24 20 19 29 33 38 36 33 32 32 34 26 45 35 49 57 55 59 61 50 50 47 45 40 47 44 41 44 42 30
18 19 21 21 23 20 15 12 19 22 32 42 36 26 31 36 38 27 46 34 36 39 55 38 39 32 34 28 28 36 39 53 52 53 56 66 46 43 45 48 45 49 40 43 40 35 43
26 20 18 17 19 20 18 15 24 24 32 43 40 24 31 36 32 32 36 41 41 51 51 40 37 33 37 29 30 34 35 37 50 51 45 47 49 58 56 40 36 34 32 37 35 38 54
25 27 21 17 18 18 16 14 18 22 35 45 44 25 28 37 37 32 38 47 49 50 31 38 30 29 35 34 32 38 37 29 40 50 43 42 31 40 39 34 28 25 35 41 64 65 51
27 27 26 25 27 21 16 15 18 17 31 42 47 28 28 37 40 38 45 60 53 34 38 30 28 33 36 33 31 33 38 34 27 39 45 44 57 46 33 31 54 41 35 50 85 84 52
32 38 35 25 25 25 23 15 18 19 34 43 50 30 29 35 38 44 54 67 45 36 28 37 30 34 35 39 33 30 32 36 33 32 53 57 60 61 45 33 29 42 42 44 54 58 43
42 43 41 36 33 26 24 15 19 22 33 47 49 34 28 37 38 49 59 54 41 35 37 41 35 36 39 40 28 30 29 29 39 45 47 67 86 58 45 31 26 23 30 35 31 35 34
51 52 50 45 39 37 28 19 19 23 36 48 50 40 30 40 41 53 55 47 42 36 36 46 33 36 39 41 27 30 29 35 46 52 39 36 56 52 40 33 24 37 34 26 28 44 56
60 62 57 51 50 44 36 27 22 26 44 49 51 43 36 40 44 44 51 40 38 44 36 36 44 40 38 44 35 36 35 42 34 26 30 29 32 40 35 37 30 34 44 38 50 35 44
62 62 59 61 56 51 43 34 24 34 52 55 53 48 54 44 39 46 44 44 37 42 43 34 39 41 32 38 42 33 40 44 37 30 28 35 30 34 30 45 34 26 22 24 43 45 43
68 61 58 67 62 61 50 46 30 33 54 59 55 57 73 56 34 46 44 44 39 40 42 39 38 41 35 27 32 34 37 39 35 31 26 28 29 29 38 38 51 59 42 31 34 47 40
65 61 53 66 72 66 60 52 40 41 62 63 59 46 60 58 44 47 48 41 42 42 34 49 41 31 34 33 36 38 43 43 34 28 27 28 30 30 33 38 52 55 46 39 37 33 38
63 60 57 70 68 73 64 59 48 52 74 69 54 46 49 54 48 50 49 45 45 44 37 49 50 38 38 37 35 43 45 45 42 40 33 34 40 37 35 34 37 37 39 33 30 32 35
68 72 67 68 74 77 71 56 49 64 85 60 57 52 62 57 53 56 45 48 50 47 41 45 42 42 39 48 45 45 49 62 53 51 48 47 49 43 40 35 34 35 30 26 25 26 28
74 76 71 87 80 78 69 53 56 67 73 55 65 63 72 61 53 44 51 55 58 38 61 55 48 48 50 45 41 38 39 47 51 51 50 54 50 45 48 45 47 25 24 23 23 22 22
81 85 87 93 82 76 62 50 73 87 85 66 75 79 76 76 52 54 54 56 49 41 67 56 52 55 48 40 37 38 42 43 47 46 45 45 44 48 60 44 31 28 27 25 25 26 26
89 87 90 91 81 69 58 57 91 98 90 75 70 74 94 77 65 47 50 59 51 57 80 59 57 51 47 43 42 38 43 33 42 42 36 38 44 48 46 55 56 36 31 27 25 30 28
83 77 78 84 74 69 54 74 90 90 79 82 85 88 99 79 75 67 51 50 52 64 81 57 53 46 43 47 49 43 41 34 46 45 47 48 50 54 52 57 46 32 29 27 31 39 35
68 64 69 69 70 63 46 69 88 95 84 85 84 92 91 79 64 66 59 47 57 72 69 58 55 49 49 48 48 43 48 42 37 34 39 39 47 53 52 62 55 29 29 32 40 36 32
59 61 60 67 66 55 45 78 88 92 88 83 91 79 91 98 74 64 61 51 51 67 53 51 47 44 42 44 41 47 49 48 39 42 32 43 38 45 39 44 36 33 32 32 33 33 33

GFSGBSN_prec_cthk_027.txt.gz
RH
22 22 28 33 34 39 44 48 54 54 45 36 32 29 27 27 26 25 22 20 17 15 14 15 16 16 16 21 22 25 25 23 19 20 26 31 35 35 38 39 35 36 37 44 52 49 62
23 22 22 23 32 33 35 43 47 52 55 43 36 31 29 29 27 27 24 21 18 16 14 16 16 16 17 28 26 28 25 21 21 23 26 31 37 38 41 39 39 35 40 45 51 50 58
25 25 24 22 21 29 32 34 37 44 51 52 39 33 31 31 29 28 26 22 18 15 15 16 16 16 17 20 25 25 28 24 23 25 27 32 38 37 40 44 50 47 37 40 45 50 51
29 26 24 25 22 22 29 30 31 34 42 53 44 37 34 32 31 30 27 22 18 15 15 15 15 16 16 19 25 27 27 28 32 31 32 36 36 36 40 39 44 42 37 38 41 49 58
24 24 28 26 25 23 22 31 32 33 33 45 51 40 35 34 32 31 28 21 17 15 15 15 17 24 24 23 24 26 30 34 40 44 39 37 32 34 39 46 44 41 44 43 38 40 44
23 24 24 24 24 22 18 23 26 32 34 40 48 42 38 35 33 32 28 20 16 15 16 15 17 25 20 23 23 29 32 37 42 44 43 37 35 38 48 46 48 47 49 42 43 40 42
19 18 21 20 18 21 18 16 25 27 30 36 46 44 37 35 33 32 29 20 30 35 30 16 23 26 27 29 30 30 32 41 43 49 50 42 42 51 47 54 47 48 46 43 40 38 36
23 18 16 16 16 16 15 17 17 22 26 34 42 45 35 33 32 33 30 21 33 33 32 24 23 26 27 31 31 28 33 41 45 49 54 49 52 49 47 52 48 47 47 42 36 35 31
29 31 26 18 15 14 15 15 18 22 26 29 39 46 36 32 31 32 30 21 30 28 29 20 18 24 28 29 29 29 34 44 48 51 52 53 48 48 53 49 51 50 48 44 37 23 24
20 22 26 23 28 17 14 15 15 15 24 29 40 46 40 31 32 36 33 23 22 29 36 24 28 24 25 29 27 30 39 38 43 52 58 58 52 49 52 49 48 44 49 42 39 31 25
27 22 20 18 21 27 22 17 17 20 21 28 34 44 43 27 34 40 45 33 35 37 56 31 33 30 21 24 25 35 40 43 46 51 54 53 50 47 53 50 48 47 45 40 43 48 52
27 27 23 20 19 19 23 25 18 17 25 27 31 37 48 28 31 43 50 42 39 52 56 34 32 31 28 27 23 38 42 41 53 48 48 52 47 47 46 45 41 37 36 36 47 47 58
37 32 27 27 19 19 18 18 22 18 24 30 30 36 43 28 31 41 43 50 56 60 29 36 32 31 27 29 23 34 38 42 44 47 46 46 46 52 44 41 41 38 37 49 53 65 64
48 39 34 27 27 20 18 18 17 15 24 36 31 31 42 25 38 38 43 55 66 32 29 31 31 29 25 28 28 35 41 42 30 36 45 50 51 52 52 47 46 44 35 57 69 74 58
45 50 44 34 28 26 26 23 20 16 16 36 50 41 42 29 43 48 49 60 48 34 27 33 32 29 27 31 33 34 47 43 34 30 41 52 54 51 55 46 46 39 44 47 65 64 67
45 47 50 45 32 27 26 26 26 19 17 30 46 52 36 34 44 55 53 55 45 31 33 39 39 29 28 33 37 34 34 31 42 39 43 52 53 51 59 50 39 32 43 51 50 47 45
47 50 51 46 43 35 38 27 25 22 20 29 43 55 29 42 42 59 56 52 39 36 42 47 42 31 28 34 37 37 34 29 38 50 48 56 51 55 53 50 40 34 34 30 30 44 57
50 47 49 46 42 45 44 37 31 25 27 31 43 54 32 44 50 54 50 42 36 39 44 45 43 34 28 42 44 29 31 38 37 43 47 52 48 54 48 38 38 36 37 48 53 37 49
60 50 48 46 44 49 51 38 40 32 29 32 51 51 49 48 42 49 40 39 37 44 46 42 40 31 31 47 61 40 44 47 49 48 40 33 36 46 40 34 37 40 33 34 44 47 48
62 53 50 52 51 60 59 49 51 37 32 43 52 63 59 53 31 38 41 32 39 42 49 42 38 33 34 48 52 52 46 50 42 42 39 35 32 34 37 26 37 46 43 47 33 49 46
60 53 51 57 61 62 64 55 56 49 36 51 56 53 44 53 50 39 40 34 40 48 47 42 40 34 39 37 43 48 46 44 39 34 31 31 31 27 28 27 38 45 48 58 48 42 47
60 52 54 67 66 61 66 66 63 54 46 61 59 44 44 48 50 45 39 35 38 44 46 43 45 30 37 42 35 40 43 40 37 36 30 26 34 30 29 28 34 39 43 46 46 38 36
62 55 63 66 64 63 64 73 62 60 59 65 63 50 44 49 57 52 35 33 38 40 44 42 39 40 34 38 41 44 43 42 44 45 41 39 41 42 41 35 32 32 26 28 30 31 32
65 72 67 60 56 60 70 73 65 63 63 66 63 58 60 52 63 39 39 34 40 43 47 41 39 44 45 43 46 48 49 49 51 67 56 50 54 57 55 43 37 29 27 26 28 29 29
78 75 66 56 52 63 74 74 64 62 72 75 71 75 75 66 51 54 42 40 44 45 53 48 45 45 46 43 52 63 63 49 46 52 57 56 57 61 55 50 35 32 30 29 28 31 28
76 72 69 66 60 69 72 78 66 56 78 73 78 76 80 81 54 39 43 45 52 61 63 58 58 56 50 67 56 59 56 40 43 41 43 46 50 48 52 52 48 39 32 29 27 39 31
74 71 82 73 74 73 75 77 66 46 79 76 86 74 68 82 76 56 45 40 52 59 61 57 64 65 54 59 64 53 43 36 46 46 46 49 51 52 59 56 47 37 31 28 33 37 32
80 80 82 87 89 88 87 75 57 40 70 74 84 71 75 82 82 66 53 52 65 57 62 61 68 80 67 59 62 49 48 41 47 45 42 41 49 51 56 60 52 29 28 28 35 33 33
91 88 88 95 97 88 82 68 50 50 74 78 86 76 90 89 86 79 65 65 59 53 59 63 66 71 48 44 45 46 51 49 44 49 38 41 36 41 39 42 30 28 29 31 32 31 33

GFSGBSN_prec_cthk_030.txt.gz
RH
23 21 20 22 25 30 34 33 40 45 50 50 46 36 32 31 29 29 28 26 25 20 15 14 13 13 13 17 21 22 20 23 19 20 25 31 36 39 41 40 39 37 37 40 42 50 52
26 23 22 22 21 22 28 33 31 39 44 48 51 45 36 32 31 31 30 27 26 20 15 14 14 13 13 22 23 25 22 21 19 22 27 32 36 39 40 43 43 40 39 47 52 58 57
26 26 24 23 21 21 21 27 32 32 35 42 46 51 40 35 33 33 31 29 27 20 15 14 13 13 13 17 22 23 26 23 21 23 28 34 38 42 40 37 48 46 43 49 48 59 52
30 29 25 27 23 22 21 21 26 32 31 36 39 48 46 36 34 33 32 31 27 20 15 14 14 14 12 16 20 22 27 27 32 30 31 33 35 39 41 38 42 43 38 44 53 54 56
25 31 34 23 32 42 29 24 29 29 31 31 35 42 49 40 36 35 33 31 27 20 16 14 14 18 16 17 20 23 28 28 37 40 38 35 34 36 40 45 45 39 38 39 49 51 50
22 23 31 38 27 24 31 40 33 36 36 29 38 36 46 44 39 37 34 32 27 22 17 15 15 18 19 22 23 25 28 31 35 41 42 38 33 34 43 46 47 41 44 44 45 44 47
32 25 20 21 28 26 24 21 28 29 33 34 40 37 48 48 41 36 34 33 30 36 30 20 15 19 24 26 26 28 29 32 37 44 49 37 42 48 44 50 48 52 48 50 48 45 47
36 35 30 20 17 21 24 27 25 30 29 30 32 39 45 50 39 36 36 35 37 32 27 24 22 23 25 28 29 29 29 32 38 46 52 41 48 47 51 56 55 51 51 49 41 36 38
23 26 34 33 23 17 16 18 20 18 16 28 23 37 39 49 41 35 38 36 32 36 30 18 19 17 24 28 29 27 29 33 42 45 48 47 42 46 50 55 52 50 48 47 45 37 38
28 25 20 25 31 29 24 19 17 20 17 18 28 32 28 44 41 37 45 38 27 31 38 22 19 16 26 26 26 27 28 32 37 46 49 49 42 46 53 53 50 47 41 43 46 40 31
32 28 27 23 21 24 26 30 24 17 18 22 23 32 38 43 41 40 50 43 35 40 42 26 24 24 23 23 25 26 30 31 38 44 49 49 48 45 51 49 48 49 46 46 45 47 31
37 38 29 27 27 21 20 22 28 28 23 17 26 30 32 44 38 47 52 49 43 52 51 32 29 27 22 22 24 33 34 34 39 46 49 50 48 46 48 48 46 46 47 47 49 52 59
35 39 38 35 27 27 24 19 20 24 28 27 27 40 30 41 43 42 51 53 58 62 27 32 29 28 25 23 28 32 33 36 42 48 50 49 47 43 46 45 43 39 40 49 54 67 63
32 39 43 40 38 28 27 27 20 20 20 22 28 35 43 34 46 45 55 64 65 39 32 32 31 30 28 24 26 30 32 35 37 44 51 52 52 49 46 45 45 46 43 51 53 59 50
36 39 49 46 43 36 30 27 27 27 24 18 27 38 41 34 48 48 55 70 54 41 28 32 34 34 29 23 25 30 31 31 35 37 40 52 54 49 44 43 42 47 48 43 59 65 63
55 48 52 50 50 44 35 28 26 28 29 24 26 39 37 33 48 49 57 51 49 31 36 37 37 33 29 25 30 34 31 29 32 37 36 44 51 50 47 47 44 40 42 53 59 59 55
75 65 56 53 51 46 44 32 28 29 32 29 34 41 37 33 58 50 57 54 40 27 41 46 41 36 28 26 31 34 29 30 35 43 46 53 45 48 46 47 48 43 35 43 47 50 48
81 66 67 56 53 49 49 39 30 39 39 34 41 49 38 37 67 53 50 50 38 31 42 53 48 42 32 27 34 34 31 27 29 36 46 49 55 64 49 42 45 42 36 41 57 49 58
86 73 66 63 56 46 50 47 32 39 38 39 45 52 52 34 57 55 50 52 46 36 44 51 49 43 33 32 37 40 34 30 35 36 42 48 51 62 48 50 39 38 42 43 47 56 52
92 80 71 63 59 55 48 49 37 45 44 46 52 63 65 51 37 43 50 44 40 36 45 52 53 48 40 35 38 45 39 37 36 40 49 47 46 37 40 32 35 37 37 45 51 55 51
95 88 76 68 64 58 54 45 47 51 49 52 63 58 46 52 45 47 45 42 36 38 43 49 55 50 43 41 41 48 48 45 44 49 54 50 46 41 36 30 29 29 37 35 43 48 52
95 92 76 70 67 58 54 43 55 54 60 60 70 56 48 44 37 38 49 40 33 29 37 49 51 48 39 41 39 47 52 48 44 45 46 47 48 43 39 36 29 26 32 34 42 54 55
98 93 80 71 64 53 48 50 60 60 69 64 67 60 59 45 41 41 39 39 27 28 35 45 49 50 38 40 45 44 44 45 44 41 44 44 45 42 37 33 30 34 23 28 31 45 45
99 93 82 71 56 50 49 58 64 64 73 59 65 69 62 52 50 36 35 35 24 29 32 47 52 51 41 41 45 45 46 49 44 39 42 49 61 54 54 46 46 27 23 24 29 30 31
97 92 79 59 48 54 60 69 74 70 74 60 72 76 71 55 45 48 44 38 26 33 36 47 52 48 46 44 51 53 51 46 44 47 49 58 68 68 62 61 45 30 28 27 31 37 34
93 83 64 51 51 65 62 70 72 75 66 55 75 70 74 74 48 46 53 39 33 36 44 55 60 57 56 62 53 51 54 50 55 50 49 48 60 62 70 60 51 32 29 32 34 45 36
80 69 60 62 63 62 56 62 68 70 71 53 79 87 77 72 64 49 46 36 40 41 44 61 64 62 61 64 64 56 57 46 60 51 46 49 57 58 66 59 43 32 34 32 34 34 35
82 80 71 67 64 63 56 63 67 74 66 53 80 80 74 66 68 67 44 37 42 38 45 58 64 62 67 69 67 60 56 52 54 40 37 38 51 56 62 61 49 34 34 34 32 32 31
80 76 76 74 71 67 62 74 74 72 63 54 72 71 70 98 92 80 63 38 38 37 45 61 54 58 64 58 60 62 64 57 43 48 39 38 35 40 40 39 31 28 28 28 27 28 31

GFSGBSN_prec_cthk_033.txt.gz
RH
30 26 24 24 25 23 27 30 33 32 37 41 44 45 42 33 30 30 29 29 29 28 24 19 13 14 11 12 17 20 19 19 18 21 24 28 33 32 36 38 41 44 45 35 38 48 55
29 29 28 25 24 24 25 26 31 33 32 35 41 43 47 43 35 32 31 31 31 30 25 19 14 14 12 13 19 19 20 18 17 24 28 29 35 38 39 36 41 49 42 47 50 56 56
27 29 29 27 26 25 24 24 25 30 32 32 33 40 43 48 41 35 33 32 33 32 26 20 14 14 11 11 19 19 21 18 18 25 30 30 37 41 42 39 40 47 43 49 48 55 59
28 27 27 28 31 26 25 25 22 22 28 32 32 31 37 42 46 37 34 33 34 33 27 21 14 13 11 12 17 20 26 24 27 29 32 31 33 39 44 41 43 45 37 44 49 54 57
25 27 27 26 24 33 29 26 24 23 22 28 31 31 34 40 48 41 36 35 35 33 27 21 14 14 12 14 17 22 27 29 33 36 36 33 33 36 42 47 47 44 37 39 47 51 58
34 27 25 24 25 25 31 35 32 33 25 28 34 34 36 35 42 43 38 37 37 32 29 25 15 14 14 19 20 24 27 32 33 41 41 36 35 36 43 49 46 44 43 43 45 44 51
35 39 35 29 23 24 25 32 34 34 41 44 47 52 43 45 54 45 38 39 41 39 37 28 16 13 18 20 22 24 28 31 34 40 44 36 39 42 43 48 45 43 48 48 45 43 42
26 23 34 38 34 27 24 23 27 28 26 28 37 50 59 48 60 47 38 44 46 41 36 26 20 20 22 23 27 27 28 31 34 43 48 40 47 43 42 46 52 49 49 47 45 37 39
29 30 22 24 33 34 31 26 26 18 22 23 31 41 42 39 55 58 53 46 43 38 36 24 17 19 21 23 27 27 28 30 36 43 45 42 42 47 46 49 55 54 51 49 47 44 37
25 27 29 27 20 26 32 32 29 27 17 18 22 34 41 50 46 51 50 53 40 37 43 28 23 17 20 25 26 27 28 28 37 42 47 46 42 43 47 50 49 53 50 48 45 41 41
20 25 27 30 29 19 22 28 30 28 25 16 17 28 30 42 29 41 56 56 43 43 42 23 23 20 18 23 23 23 28 27 36 42 45 45 45 44 48 47 49 50 48 46 45 47 47
28 21 23 29 36 28 22 21 26 27 27 22 19 28 42 37 41 52 53 62 49 52 44 32 26 25 22 25 24 22 28 28 35 39 45 45 45 44 45 45 46 45 46 47 51 50 58
42 32 23 25 39 38 28 26 26 26 28 26 20 27 38 45 33 52 57 66 61 62 30 33 31 29 24 26 24 25 28 31 39 43 46 45 45 47 46 44 45 43 44 48 52 63 58
55 45 33 25 35 38 39 29 29 28 26 28 25 27 31 42 37 46 61 75 66 48 39 34 32 31 28 24 23 27 30 34 40 42 52 50 48 45 46 47 47 46 44 51 51 62 51
68 60 49 32 31 36 40 37 29 29 29 31 25 26 38 36 38 48 59 75 59 45 35 31 36 37 32 27 25 29 30 30 35 41 45 52 47 48 50 47 46 46 41 43 54 60 59
75 73 62 52 33 37 49 39 37 31 29 30 29 27 36 40 44 63 57 59 59 36 38 38 40 36 35 30 28 31 32 28 29 35 36 41 47 46 46 47 45 43 42 46 56 54 55
87 77 74 67 51 38 51 49 43 35 36 37 36 35 28 36 52 57 61 52 59 43 41 47 45 39 35 33 26 26 28 30 32 37 37 37 38 44 48 44 44 47 49 47 44 59 61
97 85 80 79 65 52 50 54 50 40 39 41 40 39 35 35 53 52 48 52 46 39 46 52 50 44 38 33 30 29 31 31 30 40 40 38 38 47 43 48 48 47 53 53 55 47 61
97 96 86 84 81 66 68 57 51 46 42 43 42 43 46 35 48 47 44 49 44 35 37 44 51 47 42 37 34 30 32 34 35 34 38 39 42 51 49 49 46 44 45 46 48 52 49
99 98 95 85 83 79 78 60 62 52 48 50 50 53 59 58 27 40 47 47 48 33 33 39 48 52 47 40 35 36 37 38 37 35 35 36 43 48 55 45 49 49 43 44 46 58 48
98 99 98 93 88 90 83 69 62 51 52 58 54 50 48 55 37 40 42 44 45 35 35 37 45 53 54 49 42 39 40 40 36 36 38 38 44 48 45 40 40 34 37 44 40 38 44
99 99 98 97 88 82 84 77 67 60 54 66 62 53 56 44 41 39 43 44 43 42 38 40 39 47 53 54 45 42 40 42 39 38 39 43 52 49 48 44 42 38 35 32 33 37 37
98 98 98 96 90 88 88 77 70 61 55 70 62 58 57 50 47 50 32 37 36 44 42 36 35 44 53 54 49 41 43 41 48 48 46 48 50 49 46 44 40 42 33 31 27 27 33
99 98 98 99 94 92 89 79 68 62 43 62 56 59 66 55 56 38 37 42 35 42 36 25 39 47 51 57 52 47 45 54 60 57 51 51 51 53 53 44 49 31 28 27 25 23 23
99 98 98 98 98 95 87 73 60 51 47 68 59 62 67 69 51 48 47 39 36 41 41 26 41 39 58 63 63 63 61 57 59 61 56 46 47 51 55 61 52 41 35 32 29 30 29
98 98 98 98 97 93 83 72 54 50 61 72 71 58 72 74 61 51 44 45 37 37 42 31 35 53 57 68 73 67 66 61 61 62 59 50 42 52 61 59 58 46 43 36 33 42 33
98 99 98 98 96 87 77 62 50 55 66 75 74 67 63 63 67 69 58 44 39 32 36 34 46 58 61 71 76 66 65 55 59 61 53 54 56 58 59 54 46 35 36 36 40 34 37
98 98 98 97 89 79 66 53 55 65 74 73 76 77 61 57 64 62 65 51 49 37 32 31 56 63 66 73 72 70 75 58 55 51 45 52 62 57 53 53 45 33 34 33 32 37 38
97 97 93 86 75 65 59 58 63 66 78 76 88 86 72 75 83 62 63 52 38 41 28 34 43 57 58 70 71 75 72 63 54 55 44 48 42 36 36 37 29 28 28 31 34 34 32

GFSGBSN_prec_cthk_036.txt.gz
RH
30 29 29 30 30 28 28 29 33 35 37 37 38 44 43 45 43 34 28 27 28 29 30 29 25 19 14 12 15 18 15 15 15 18 24 29 33 35 33 35 41 48 45 42 41 49 59
31 27 27 28 27 27 28 27 27 31 35 36 36 34 43 42 45 44 35 31 30 31 32 30 26 20 15 13 18 18 16 15 16 23 28 30 35 38 38 36 44 38 45 53 55 60 61
30 31 29 26 27 27 26 26 28 26 27 34 39 37 34 41 43 45 43 34 33 33 33 32 29 21 15 12 17 17 17 16 19 25 30 34 36 39 41 42 44 41 45 51 54 59 59
30 27 29 31 29 26 25 26 26 26 27 26 33 39 44 38 38 41 46 38 34 34 34 32 29 21 15 11 17 17 19 19 20 25 29 32 34 35 38 41 46 39 44 45 54 55 54
37 38 28 28 29 30 26 24 24 26 25 26 27 35 38 39 39 40 47 42 36 35 35 33 31 22 14 13 15 20 22 25 29 30 33 33 35 34 37 43 47 44 44 45 56 54 57
24 30 37 36 30 29 28 24 27 28 29 25 25 29 35 37 38 38 43 45 40 37 36 35 34 25 14 18 17 18 22 27 31 34 38 35 36 35 38 45 51 50 47 46 47 49 58
18 19 23 28 38 35 32 29 27 27 31 34 32 32 34 38 44 53 53 46 40 43 43 38 32 21 17 20 19 19 23 28 31 36 42 36 38 38 40 44 46 47 47 44 40 45 43
16 18 18 23 22 31 38 35 31 29 28 32 36 40 46 46 56 63 54 54 58 52 45 41 35 28 21 23 24 21 23 26 30 40 45 42 44 39 41 44 46 46 47 47 43 43 41
26 19 17 21 24 22 24 33 37 35 34 29 28 29 39 47 58 63 72 60 58 50 52 40 31 27 19 22 24 22 23 26 29 40 45 45 42 42 37 45 47 50 47 50 51 42 39
32 29 24 18 25 26 23 22 27 31 34 33 25 22 32 39 47 47 52 62 60 62 59 40 35 26 20 22 23 24 24 25 31 39 46 44 43 43 46 47 53 55 49 50 47 44 38
36 36 30 26 22 26 27 24 22 26 26 30 26 20 28 35 48 49 51 62 51 53 52 37 34 27 22 22 22 24 24 26 30 39 45 46 47 42 40 48 48 49 47 46 43 44 41
44 42 39 34 27 21 25 28 28 23 27 24 25 22 27 34 43 42 53 63 66 68 58 35 35 30 24 23 24 24 24 25 29 40 43 45 48 46 44 44 45 45 46 46 48 47 53
53 51 49 47 38 25 23 27 29 28 26 28 24 23 27 27 31 39 61 59 71 74 44 37 37 31 24 26 27 25 24 26 32 42 43 44 45 46 47 45 43 45 49 51 49 61 56
66 64 58 56 53 41 25 31 39 29 28 30 32 27 25 27 29 41 62 80 76 49 51 38 38 34 29 27 29 27 26 27 29 39 49 49 49 47 47 45 45 45 46 54 49 59 50
85 75 69 65 60 55 41 27 37 39 31 30 33 32 26 28 30 48 68 82 68 53 46 38 38 41 37 30 29 27 27 27 29 39 42 48 48 48 50 49 46 47 46 45 56 61 58
88 87 89 72 70 65 55 34 46 46 40 36 31 34 25 24 31 55 65 62 62 52 48 45 40 42 39 33 29 29 28 25 29 39 40 45 47 48 49 50 50 47 47 49 52 52 53
88 87 89 92 78 72 66 50 35 52 49 41 38 40 25 30 38 57 56 56 54 50 52 55 46 48 41 38 31 30 28 24 27 36 39 44 41 46 48 47 46 48 47 49 49 53 55
83 92 90 93 90 78 75 65 42 57 57 47 44 43 28 27 49 46 52 50 42 38 47 56 52 51 44 40 38 32 28 25 25 29 36 39 44 47 43 47 45 43 45 47 58 51 66
80 88 95 90 98 89 79 77 54 64 64 49 52 48 40 29 48 40 44 55 45 40 42 52 49 48 49 43 39 34 27 26 29 32 37 41 44 50 43 42 44 45 46 49 55 59 59
67 80 94 94 96 98 86 84 69 67 71 54 58 60 63 50 25 34 39 48 54 43 47 45 47 53 53 48 42 36 31 34 34 36 37 40 43 42 45 42 47 44 47 50 49 55 49
53 80 88 98 97 98 94 89 82 79 75 61 66 59 47 56 40 36 36 37 46 42 44 43 46 54 59 53 48 42 38 39 38 38 40 39 39 42 43 49 47 43 42 47 43 41 44
69 73 87 98 96 98 97 90 90 85 81 75 70 59 52 41 33 40 45 38 41 37 41 49 45 38 58 59 50 45 44 42 37 41 41 40 41 41 48 50 46 40 38 37 36 33 31
76 74 88 93 96 99 98 92 96 98 91 70 69 58 52 44 47 44 34 36 39 34 38 50 32 21 48 49 49 52 49 51 46 45 40 41 46 52 55 57 51 46 33 30 29 28 29
82 87 86 94 98 99 98 92 97 96 78 57 54 62 58 53 52 35 37 38 44 32 36 44 36 29 35 57 57 60 58 55 49 46 49 50 48 56 64 58 54 31 29 29 32 26 26
89 83 87 93 99 98 98 93 93 90 79 66 58 65 61 61 52 49 48 39 43 36 33 39 39 35 36 52 62 69 69 61 58 51 55 55 60 66 66 62 46 33 31 42 40 34 28
83 76 82 96 98 98 97 93 91 90 86 78 62 64 66 65 56 53 53 46 45 38 32 35 42 37 44 58 74 80 79 67 68 55 55 60 64 65 67 56 50 33 33 36 39 37 33
81 85 93 98 99 98 97 94 94 96 93 66 52 67 72 74 62 56 47 48 47 40 32 30 37 51 43 63 75 79 81 72 73 60 57 64 71 67 69 59 45 38 30 30 36 29 29
88 94 98 98 98 98 98 95 93 94 88 63 53 68 74 76 70 70 58 48 43 38 34 33 48 49 54 62 77 78 82 77 76 62 55 55 66 71 68 60 56 33 28 31 30 28 28
98 98 99 98 98 98 97 98 98 91 77 66 55 65 73 86 70 76 78 61 50 41 32 34 35 39 38 57 76 80 80 80 71 68 56 54 47 54 53 50 45 27 23 22 26 30 33

GFSGBSN_prec_cthk_042.txt.gz
RH
49 42 36 34 32 32 31 30 29 27 28 31 31 33 35 36 37 37 39 39 38 38 31 30 30 32 30 29 23 23 24 18 15 14 19 22 25 26 29 31 36 41 41 41 45 48 61
49 49 46 43 39 36 32 31 29 29 27 27 30 32 32 36 37 38 35 39 40 41 39 33 34 36 35 30 24 26 24 19 15 18 21 24 27 27 31 32 34 41 50 58 57 56 61
35 38 44 46 46 43 41 36 33 30 29 27 26 29 31 32 37 38 37 35 39 40 41 38 37 38 37 31 25 28 24 20 18 20 22 24 28 28 31 32 36 43 48 54 59 64 61
29 29 31 33 38 43 43 40 35 33 31 29 28 26 28 29 32 39 40 37 37 40 45 40 38 40 39 31 26 28 25 21 19 19 21 23 26 28 31 31 38 41 46 50 53 62 57
25 25 25 26 25 29 35 39 40 34 31 29 29 29 26 26 29 35 36 37 39 39 46 44 41 42 40 35 27 27 26 24 22 21 23 25 27 27 29 32 35 42 44 46 49 59 61
23 23 22 20 20 21 23 26 30 36 36 30 27 29 29 26 26 30 31 32 35 37 40 43 45 46 40 39 34 28 27 26 26 27 28 30 31 29 28 31 37 42 44 47 50 54 53
17 21 24 24 23 18 17 19 24 25 28 33 30 26 26 26 26 29 33 36 41 42 41 44 47 43 41 48 38 30 30 29 28 29 29 34 32 32 31 31 35 38 44 46 47 41 48
18 17 16 19 24 25 21 16 19 23 22 24 28 28 26 23 22 28 35 41 45 46 46 40 39 45 51 46 38 32 34 33 29 30 30 35 33 33 30 33 38 41 41 41 40 39 45
25 23 21 21 19 19 25 24 18 22 28 22 23 24 26 23 22 28 33 38 44 50 49 46 43 44 50 43 43 34 34 31 27 30 29 36 36 33 36 35 41 45 45 43 41 39 44
32 32 32 32 28 29 20 24 26 18 26 28 24 23 23 24 22 25 35 36 47 52 55 44 45 46 48 44 47 37 32 29 28 31 30 35 37 36 39 38 40 46 45 42 43 42 45
46 41 36 34 36 34 35 30 31 29 19 28 28 27 23 19 27 29 33 36 49 57 49 39 46 49 48 47 49 44 32 29 28 30 30 34 36 37 38 41 44 49 50 50 47 46 41
54 53 52 47 39 37 41 38 35 33 28 24 35 29 29 22 24 27 33 39 48 58 47 36 44 48 51 50 47 42 29 29 30 33 31 36 35 38 39 41 43 48 50 51 50 49 47
63 62 63 62 57 48 43 47 42 39 35 25 32 38 31 32 22 29 39 49 54 51 36 34 45 46 49 49 48 42 31 29 29 33 32 33 35 38 38 40 44 46 50 55 53 51 50
67 67 67 67 69 67 56 52 53 45 42 37 33 40 39 32 28 31 44 59 49 27 33 43 44 48 44 48 50 39 32 31 28 28 32 33 35 35 39 40 43 45 47 55 54 51 48
67 65 63 65 66 68 69 68 61 59 53 50 38 43 39 38 34 35 54 58 29 33 35 39 46 51 47 41 40 40 34 29 28 28 30 32 34 38 42 41 43 49 48 48 52 51 46
73 73 69 68 68 70 69 69 72 73 65 62 49 53 42 38 40 46 56 37 27 31 35 40 45 53 51 42 43 40 35 31 29 28 28 33 42 42 46 44 47 50 50 50 50 55 51
81 78 79 77 77 75 76 75 75 79 80 72 67 63 49 38 45 59 61 28 26 37 34 43 44 49 59 49 40 38 32 30 28 29 29 34 40 45 46 45 47 50 50 49 49 51 54
84 85 84 83 80 79 82 82 85 85 89 91 78 69 53 49 56 59 49 31 30 37 35 41 48 57 57 56 47 42 32 30 27 28 29 35 42 46 42 45 44 47 49 50 51 51 51
79 77 82 78 78 89 83 89 90 94 94 95 86 77 73 64 51 54 33 41 38 41 35 42 43 45 58 58 57 50 39 34 32 29 29 35 41 49 45 44 44 43 43 45 47 51 50
79 80 76 74 60 79 84 86 94 98 99 95 97 96 90 78 40 28 32 51 47 44 33 42 46 42 51 56 58 55 42 39 33 31 31 33 43 43 41 38 42 45 44 45 47 51 46
81 81 73 72 72 60 73 85 88 99 99 98 98 96 78 63 57 28 33 34 46 49 41 40 52 43 51 59 57 58 51 47 41 34 34 38 45 45 37 36 39 38 40 42 45 41 42
77 79 82 85 75 65 66 87 99 99 99 99 98 85 81 59 45 37 30 42 44 49 42 33 40 44 50 52 59 61 63 62 52 42 39 41 42 42 39 37 37 36 36 40 43 39 39
94 94 90 87 88 86 72 84 98 99 99 98 96 86 79 63 52 48 45 29 44 57 46 37 33 32 40 44 64 74 71 68 64 55 44 42 40 43 40 41 42 41 37 37 39 41 36
95 94 96 98 95 95 81 71 95 98 98 92 85 80 83 72 67 46 39 34 32 46 60 53 43 39 42 38 47 58 71 71 68 54 51 51 47 49 49 55 60 28 33 34 36 34 32
78 79 81 85 97 98 89 63 80 99 99 96 86 83 84 83 60 55 48 40 37 46 60 60 55 37 33 37 37 51 60 65 69 64 56 56 54 56 62 48 36 32 32 36 39 26 33
91 90 82 86 99 98 89 71 76 98 98 97 84 86 92 81 60 59 58 53 50 45 60 53 49 43 39 47 53 52 50 61 73 71 63 60 60 61 60 53 51 27 29 33 37 26 35
96 96 94 97 98 97 95 74 87 98 98 92 92 90 93 81 74 72 74 63 55 52 47 49 54 51 47 48 59 57 48 48 61 77 78 69 64 66 61 59 42 35 39 43 47 28 29
92 91 98 98 96 96 77 80 95 99 99 96 94 91 89 90 85 77 69 80 73 62 60 50 53 54 47 44 52 56 56 52 46 63 71 69 68 67 63 68 56 33 40 46 43 39 31
98 92 95 95 94 79 72 86 97 99 98 97 98 93 91 91 79 70 75 83 85 68 55 54 32 44 41 42 51 53 65 61 49 56 62 75 63 61 54 50 46 40 34 37 42 40 34

GFSGBSN_prec_cthk_045.txt.gz
RH
54 53 52 50 48 42 38 35 33 32 32 30 29 30 31 32 35 36 36 34 30 34 31 32 30 28 29 35 32 28 25 24 20 19 18 20 22 29 35 32 33 32 40 42 44 40 49
49 51 50 51 51 50 44 39 35 32 30 30 30 30 28 30 31 34 37 39 35 34 36 36 36 32 36 38 34 29 28 24 22 21 20 22 27 28 31 32 30 41 37 54 42 50 52
38 39 41 41 41 45 48 47 43 37 32 31 31 30 29 28 29 30 32 39 39 36 37 40 40 36 40 38 35 33 30 26 24 24 23 23 24 26 34 34 28 29 35 54 47 60 62
36 34 33 34 35 34 34 39 44 44 40 35 32 32 30 28 27 27 29 33 36 41 37 38 42 41 43 37 35 33 33 28 24 26 21 23 23 25 27 33 26 31 41 54 50 47 60
31 31 31 31 29 30 30 28 30 35 39 39 35 31 31 29 27 26 26 28 31 34 38 37 41 46 47 40 35 34 42 31 27 26 22 21 23 25 33 30 38 34 44 54 49 45 57
26 25 25 25 26 25 25 24 24 27 27 32 36 34 30 28 27 27 26 25 29 30 34 34 40 43 43 43 37 35 45 32 33 29 25 25 26 28 32 36 37 36 38 40 48 70 46
33 29 24 17 19 20 22 22 18 18 23 23 26 29 30 27 26 27 27 34 39 49 48 35 44 34 38 44 42 40 49 35 33 34 30 31 36 38 42 38 35 40 39 41 43 42 35
20 20 19 18 16 15 18 21 22 20 17 22 21 23 24 22 22 24 27 35 43 39 39 40 37 34 41 45 45 45 50 35 35 36 32 38 37 37 36 30 28 35 40 37 42 36 32
26 28 27 26 23 22 19 18 18 21 21 21 28 24 22 21 18 18 28 35 39 35 42 36 35 36 34 37 43 46 48 37 37 39 35 34 46 37 30 28 34 38 45 52 42 52 32
33 34 34 34 33 31 30 29 24 19 18 22 26 28 26 22 16 17 24 31 32 37 42 35 41 38 38 39 41 43 47 39 40 39 35 33 40 35 33 36 39 46 42 41 40 38 45
40 42 41 40 39 37 34 32 32 32 24 29 22 28 28 26 32 26 39 29 28 36 39 37 40 44 43 40 38 44 44 45 40 36 34 34 35 38 35 41 42 47 46 41 41 48 47
49 51 53 54 52 48 44 40 35 35 34 31 31 28 29 28 25 28 39 32 35 40 38 35 42 41 45 44 40 43 42 46 43 36 34 32 38 37 39 39 42 44 46 44 45 47 53
58 59 62 61 61 59 56 53 49 41 39 37 37 30 36 29 27 34 35 39 42 35 26 29 38 43 43 44 43 44 45 50 44 37 35 32 36 34 37 39 40 43 47 54 53 51 48
70 70 70 68 67 66 66 66 63 60 47 46 44 37 42 38 24 36 50 51 38 18 24 35 38 45 42 42 46 48 50 50 38 33 39 38 38 34 35 36 44 45 48 54 76 51 46
73 72 70 69 68 66 66 67 68 67 64 57 55 49 43 40 32 42 56 70 24 19 22 27 37 46 45 40 45 48 47 44 38 30 32 39 39 36 39 37 42 49 46 49 58 49 49
73 72 72 72 72 71 67 65 67 68 69 73 66 61 46 46 44 46 63 66 23 19 23 32 35 41 50 45 42 47 48 44 40 32 31 37 45 38 40 42 44 50 50 50 48 56 58
74 74 73 74 74 74 74 70 69 73 76 81 78 72 58 54 62 63 64 41 32 25 27 29 40 38 50 55 44 44 52 46 41 35 32 36 38 43 43 42 45 44 49 47 52 54 61
74 73 73 75 76 79 81 81 79 80 85 89 83 73 70 72 78 61 54 24 26 29 33 34 42 48 48 59 52 42 46 46 42 37 36 31 41 53 50 43 43 54 46 49 54 52 53
75 76 78 79 79 80 82 86 87 88 90 92 85 84 80 89 79 59 37 22 28 37 39 42 53 54 59 59 65 51 47 47 48 39 37 36 40 48 53 49 51 48 52 50 52 53 56
81 79 78 80 79 76 79 85 91 96 97 98 96 93 94 88 66 62 36 29 28 33 45 46 53 60 51 60 66 64 49 46 48 39 36 38 37 43 46 50 49 43 43 47 50 57 53
78 79 78 79 82 80 77 85 91 98 99 99 99 90 82 74 68 52 38 25 32 31 34 55 54 56 46 58 60 62 60 61 49 46 45 38 41 40 40 49 48 48 48 47 47 48 51
78 79 81 80 76 83 87 91 91 98 99 99 98 84 82 70 70 66 61 39 32 40 32 37 56 60 59 54 60 67 66 64 60 54 48 43 48 44 42 50 47 44 41 40 40 43 44
63 65 68 69 76 83 83 83 88 97 99 99 98 84 85 79 78 71 64 42 31 38 38 37 38 59 72 63 73 73 71 65 69 69 56 48 47 49 51 52 50 51 36 40 40 41 45
80 79 80 81 78 76 83 82 78 93 98 98 88 82 89 87 91 63 54 51 37 33 41 44 50 61 66 67 76 67 68 65 70 72 67 64 58 50 56 55 59 37 38 35 34 34 38
80 76 77 81 89 96 90 89 84 80 99 89 88 90 87 91 81 69 72 68 54 45 57 55 58 55 62 80 62 65 65 65 67 74 71 67 60 56 61 53 41 35 34 36 37 33 35
79 77 83 89 87 98 98 90 86 73 79 96 84 87 91 88 85 71 73 74 60 53 60 69 63 63 62 81 63 45 38 40 62 79 79 74 65 64 56 54 56 36 37 32 34 34 33
69 86 90 88 81 91 99 93 88 74 80 97 98 93 91 86 87 85 84 77 63 58 54 68 63 78 56 67 61 51 42 34 51 79 87 81 76 74 65 64 49 37 37 38 43 24 41
86 88 91 95 98 82 95 98 92 82 79 97 98 94 86 89 88 89 90 87 67 63 65 52 76 72 70 73 53 47 53 43 45 46 62 84 78 75 68 69 67 42 39 38 30 33 46
86 94 87 83 98 88 96 98 96 80 93 99 98 94 93 95 95 98 90 87 82 77 64 65 78 67 50 59 54 43 51 57 48 55 49 70 79 75 63 55 46 41 41 42 39 47 49

GFSGBSN_prec_cthk_048.txt.gz
RH
65 62 55 55 57 57 55 48 40 38 37 33 32 33 33 33 31 31 33 32 33 31 30 30 30 30 30 32 32 32 31 27 25 22 21 21 22 24 31 41 34 37 34 33 40 37 35
55 54 59 63 52 50 54 55 53 48 41 37 34 32 32 32 31 30 30 31 33 34 35 33 34 35 39 36 34 33 34 28 26 23 23 24 24 31 28 31 30 36 36 30 47 41 52
60 61 52 45 48 52 57 53 48 52 52 45 38 34 32 31 31 30 30 30 30 34 36 35 35 39 42 36 34 36 37 32 28 26 25 26 25 26 29 32 37 32 25 32 51 43 55
45 42 46 52 41 37 36 39 50 43 42 47 47 42 36 33 32 30 30 29 28 29 31 32 35 38 40 36 40 40 39 35 31 29 26 28 24 23 25 26 29 27 31 37 47 48 68
40 38 36 38 36 40 34 30 31 32 39 35 37 41 40 34 32 31 31 28 28 27 28 29 30 38 40 37 39 44 44 36 36 38 27 25 22 22 24 29 33 34 35 40 41 44 53
41 42 45 36 30 29 30 30 30 29 28 31 31 29 33 35 29 30 30 29 28 31 36 35 33 39 34 34 39 42 41 38 45 38 27 25 23 23 25 29 43 42 41 40 44 45 41
29 32 28 30 37 34 27 27 27 25 26 25 26 30 26 30 25 23 27 29 40 52 56 45 38 40 35 38 39 38 40 41 48 43 30 30 30 31 36 46 37 36 36 46 47 41 39
18 19 23 22 24 22 29 28 24 19 21 21 20 26 24 25 22 16 18 30 38 50 40 36 34 38 35 41 38 39 42 45 48 42 35 37 37 35 40 46 34 32 33 38 37 45 34
20 21 23 27 29 33 32 28 24 22 21 21 21 23 28 22 20 13 12 17 36 44 43 34 29 29 33 33 37 40 41 46 48 41 36 40 41 48 39 34 27 29 34 41 42 46 37
24 27 30 32 33 34 36 39 35 32 26 22 19 24 28 28 15 19 14 17 23 28 35 24 30 33 31 36 32 35 41 47 46 43 36 40 37 41 39 30 30 37 40 43 43 43 40
31 31 33 36 38 39 40 40 38 38 34 29 25 23 28 30 27 21 40 40 30 30 31 20 25 34 39 35 33 32 37 48 46 47 44 38 40 36 37 31 36 39 48 50 39 37 42
30 32 38 43 46 45 45 46 45 43 40 39 34 27 30 31 28 17 41 38 34 38 32 21 33 32 38 41 40 39 39 39 44 48 44 38 41 37 38 33 39 40 40 45 41 37 44
31 36 44 53 55 53 52 55 56 54 50 47 45 34 32 35 32 29 48 42 43 34 15 15 34 34 36 41 43 43 44 42 43 46 47 42 36 39 37 37 38 39 42 49 56 51 46
35 41 49 62 68 65 66 66 65 64 61 55 53 49 36 38 35 42 54 51 40 16 19 29 26 33 36 40 46 45 46 44 45 46 50 47 42 36 38 34 40 38 38 55 74 71 66
40 46 54 70 76 76 75 74 73 73 71 69 67 61 50 43 45 51 57 57 25 20 17 18 33 37 40 40 43 46 44 44 48 47 53 48 42 40 38 33 34 42 40 39 68 66 69
52 57 65 78 79 79 78 76 76 76 75 78 77 75 65 53 58 62 61 54 20 18 20 27 27 30 42 44 43 45 48 47 50 52 53 44 52 44 46 39 35 35 46 47 50 64 64
66 73 82 82 81 80 81 83 86 85 84 81 79 76 71 71 70 76 66 43 28 22 22 31 30 34 34 44 52 45 46 50 52 54 50 42 49 48 46 41 38 37 42 52 53 50 58
84 85 84 83 81 80 82 84 87 92 95 94 87 77 72 79 79 75 59 27 23 18 21 29 37 37 40 41 47 62 47 50 53 51 54 42 49 52 51 44 40 41 42 49 52 56 64
88 86 83 80 79 79 79 83 87 93 96 98 92 86 85 83 75 64 50 38 32 31 25 27 33 39 39 53 55 59 63 49 54 51 54 46 48 57 52 54 56 39 48 41 42 45 52
85 83 82 80 79 79 80 82 87 93 96 99 99 95 89 85 67 60 50 34 33 33 28 26 33 39 44 56 61 63 65 50 53 53 53 55 50 47 53 50 50 47 48 53 53 66 63
83 83 83 80 81 82 85 86 91 95 98 99 98 86 71 71 65 53 64 42 44 46 38 31 35 41 43 68 71 76 69 66 53 54 52 54 58 47 46 42 51 46 42 46 49 48 51
86 84 79 74 83 81 80 80 83 89 96 99 98 84 73 65 71 71 67 54 47 42 44 30 34 35 43 67 68 68 72 69 66 55 53 55 58 51 53 42 46 58 56 43 40 37 41
73 69 69 72 77 82 83 82 85 87 97 98 97 77 82 69 75 79 63 46 45 48 49 39 28 40 47 42 50 80 69 78 72 66 56 57 58 50 54 45 47 53 55 47 48 44 43
62 60 58 60 63 71 79 88 90 88 95 99 97 83 95 82 82 68 57 58 54 60 55 46 43 34 39 31 70 86 75 74 80 76 67 60 59 58 67 65 63 43 47 45 43 38 38
73 77 77 75 72 73 73 75 86 93 96 99 98 97 94 90 75 79 73 69 62 69 68 57 53 33 32 62 63 97 96 91 74 73 69 68 66 73 72 65 56 46 48 45 39 35 32
88 89 90 89 86 86 87 80 71 70 83 99 98 98 95 90 84 72 75 70 74 75 72 53 46 48 54 58 74 91 97 81 72 70 63 69 73 77 77 67 64 50 41 38 40 41 33
72 69 71 86 95 92 90 88 83 77 83 98 97 98 97 96 80 83 85 78 78 80 73 58 48 58 67 66 68 67 85 65 63 68 72 77 85 88 80 80 62 43 36 40 49 37 36
73 78 82 81 81 87 90 88 90 93 89 98 95 97 98 97 86 85 80 85 84 81 73 52 65 67 88 93 76 57 66 66 52 48 60 76 90 92 86 85 76 49 46 47 39 31 38
79 85 87 83 91 90 95 96 97 98 97 95 96 98 98 99 98 88 80 85 91 84 77 68 59 55 63 91 78 65 65 57 44 43 46 68 65 86 79 69 64 54 55 53 48 47 42

GFSGBSN_prec_cthk_054.txt.gz
RH
48 51 58 63 68 68 73 70 62 62 59 54 53 48 42 39 37 35 34 33 32 30 30 30 30 29 27 29 23 22 23 28 31 31 26 24 26 23 23 25 26 30 33 35 36 34 41
40 43 46 52 62 63 76 80 78 74 66 65 57 53 49 47 41 36 35 34 32 32 32 30 30 32 32 37 29 29 29 31 33 31 27 27 25 27 27 23 25 28 29 30 31 37 44
26 31 36 44 46 51 59 70 76 75 78 67 67 57 59 54 50 42 37 36 34 32 32 30 29 31 37 34 30 33 36 35 37 36 30 28 27 32 30 23 22 24 25 23 34 41 41
19 19 21 27 42 49 50 48 53 68 73 75 58 67 57 63 55 45 42 39 36 32 32 29 29 32 36 30 30 31 33 34 37 39 35 31 34 35 38 25 20 23 29 36 40 41 43
19 19 19 20 24 37 44 51 56 47 50 64 65 53 50 56 56 47 37 41 39 33 31 30 35 39 37 34 33 31 28 35 36 39 37 37 36 40 35 25 22 22 35 42 40 40 48
19 19 19 19 19 22 30 33 49 56 58 48 56 57 48 40 45 55 41 30 35 33 31 32 44 47 37 32 31 36 35 35 36 38 39 40 39 43 31 24 26 34 40 41 40 46 48
19 20 20 18 17 18 19 20 23 38 47 59 51 51 37 52 29 43 47 27 27 40 51 48 49 42 37 39 36 35 35 34 37 37 39 41 41 45 26 21 23 34 40 40 40 44 50
18 20 20 20 20 21 21 22 25 28 39 48 49 47 53 38 29 34 36 39 35 47 39 32 39 40 39 40 41 37 38 37 38 42 41 45 46 35 26 24 31 39 41 40 43 47 55
18 18 19 19 20 25 29 28 28 28 28 35 40 53 40 41 41 30 30 28 41 42 39 27 23 28 33 32 36 35 39 36 39 43 41 46 49 33 34 37 40 39 38 32 43 45 52
18 17 18 18 20 24 28 30 30 30 30 34 38 41 53 38 29 36 31 29 42 45 42 31 22 17 23 30 32 31 37 37 38 41 43 44 50 37 41 42 39 36 36 34 39 45 49
21 20 19 19 23 26 28 30 30 31 35 41 42 42 42 41 31 34 53 46 41 34 24 14 23 24 23 21 24 32 33 40 37 39 41 40 50 47 43 41 40 35 36 36 39 41 44
23 22 24 26 27 27 28 29 29 38 40 45 48 46 47 40 31 35 42 48 52 40 50 17 22 25 28 26 24 31 28 37 37 39 39 39 44 43 40 45 38 35 34 39 44 44 49
27 26 25 27 28 28 28 29 30 40 44 51 55 54 51 47 37 28 49 57 55 58 16 11 25 25 26 28 27 31 33 35 40 44 43 40 43 44 41 46 41 37 41 48 51 58 53
28 27 27 27 27 29 30 31 31 39 49 57 61 62 55 53 48 35 47 68 63 29 19 18 22 31 29 27 29 29 35 35 38 41 44 47 48 44 41 47 43 39 41 51 54 67 58
24 27 29 29 29 31 33 38 39 40 54 62 73 70 60 59 60 47 50 64 52 35 23 16 23 25 35 34 33 37 37 38 39 41 44 48 45 40 43 48 47 41 40 38 53 57 62
26 29 30 29 32 35 41 43 42 44 57 70 78 78 65 72 72 60 58 50 44 37 23 27 33 33 43 46 45 46 45 41 39 38 43 45 53 47 45 48 49 46 43 51 56 64 59
29 30 30 32 36 40 45 48 50 52 62 80 89 85 72 83 84 72 57 52 44 39 28 30 29 33 46 48 46 46 48 48 48 47 49 50 54 51 51 50 50 47 45 47 52 57 56
33 32 35 41 43 49 52 58 58 59 70 90 98 88 86 91 89 69 54 50 50 39 32 31 29 30 41 52 49 42 42 46 56 55 51 50 53 52 50 51 48 47 47 46 55 54 54
34 43 48 53 59 63 67 69 65 67 81 97 98 92 94 94 81 64 59 59 59 58 45 35 28 26 29 48 54 48 43 45 56 61 59 56 53 61 57 54 53 50 47 46 52 51 54
52 58 64 70 77 84 82 76 72 78 87 99 98 95 92 85 69 69 75 69 69 63 58 51 37 30 29 34 49 51 51 43 51 59 65 64 55 50 51 55 54 56 52 47 52 62 54
83 87 87 90 97 97 91 84 82 88 98 99 97 86 78 76 71 76 74 64 62 59 57 54 45 39 36 33 34 35 46 55 57 67 74 73 57 57 56 57 58 55 57 54 53 53 55
97 97 97 97 97 98 98 98 98 98 99 98 91 84 81 75 76 81 74 58 63 67 62 54 49 43 39 31 26 35 47 59 66 68 81 79 76 61 62 59 61 61 54 55 57 58 56
97 97 97 98 97 97 98 98 98 98 98 97 92 89 86 79 77 75 54 62 70 72 64 56 50 48 40 40 31 28 50 51 60 67 78 88 88 86 61 62 61 66 52 56 56 59 59
95 95 97 96 97 97 97 97 98 98 98 98 97 95 94 80 70 53 65 73 71 69 68 57 52 55 52 51 44 39 41 61 58 52 64 78 92 90 75 70 76 37 48 51 52 51 55
93 93 94 93 93 94 93 95 98 98 98 98 99 96 91 83 72 73 68 70 76 69 66 61 57 62 62 59 53 43 50 44 39 43 53 59 86 98 91 74 55 49 51 50 56 50 52
82 82 80 79 79 83 86 87 91 96 98 98 99 98 97 91 68 73 75 75 71 71 69 57 64 69 70 66 60 48 48 51 57 51 43 58 72 89 95 95 72 41 53 54 53 55 48
80 82 81 86 89 87 82 82 81 83 92 98 98 97 99 93 78 82 76 72 74 70 64 65 64 68 70 70 69 60 46 44 52 55 59 64 79 90 97 98 80 61 57 56 64 48 51
90 90 89 88 89 91 94 92 84 76 77 94 96 94 97 94 83 86 82 76 76 74 68 62 71 68 72 73 70 58 52 47 51 49 51 63 80 87 97 98 92 69 67 61 59 55 52
84 85 89 89 82 79 79 92 95 91 84 93 96 96 94 97 93 87 87 82 74 67 69 68 68 67 66 70 65 58 56 57 46 56 50 56 45 76 87 97 77 68 70 73 61 61 56

GFSGBSN_prec_cthk_057.txt.gz
RH
26 29 33 39 41 42 48 53 57 65 67 70 66 63 56 50 48 42 38 35 35 34 32 28 25 25 28 29 29 25 25 25 28 29 30 28 25 27 26 28 31 28 26 28 29 27 33
23 22 24 24 28 36 42 50 55 55 57 69 78 74 73 58 52 50 43 39 37 35 32 31 29 27 31 38 30 27 27 23 28 31 33 31 26 26 28 30 31 30 26 26 26 33 40
21 20 19 18 19 20 22 27 39 43 49 54 67 81 75 75 58 54 51 44 39 37 33 31 30 29 35 33 29 29 33 35 35 35 37 36 29 32 33 31 29 29 21 26 27 36 40
19 19 19 19 18 18 18 18 19 37 41 44 54 67 77 80 75 58 56 52 45 39 36 33 30 31 36 30 31 32 33 36 37 40 39 36 34 36 40 37 37 28 23 28 32 39 40
18 18 18 18 17 17 17 18 19 20 34 43 47 46 59 73 63 69 52 56 51 41 38 34 32 34 39 34 35 34 33 36 39 38 40 35 36 41 40 40 38 24 28 35 36 38 41
20 19 20 19 18 18 18 18 17 16 17 28 42 53 49 58 63 54 57 55 47 46 39 35 39 40 36 34 34 37 38 37 37 37 41 37 40 43 43 44 34 24 31 35 40 39 42
20 21 21 19 19 18 19 18 17 19 20 22 32 35 60 58 51 54 46 40 58 54 53 38 40 40 39 38 38 38 41 38 36 39 42 40 38 46 44 43 29 24 29 40 40 39 40
20 20 20 17 18 18 17 20 23 23 25 25 26 29 38 58 59 48 52 46 53 71 57 40 40 41 38 37 40 39 41 41 38 39 44 42 38 45 42 39 30 30 33 39 41 41 42
20 20 20 18 19 17 17 19 23 25 26 26 25 30 30 42 52 51 49 44 60 62 60 46 31 28 31 31 36 35 41 42 40 41 42 43 41 44 43 36 31 32 39 38 39 37 38
25 25 26 20 17 18 19 18 20 24 25 27 28 30 30 32 44 44 50 59 47 58 56 35 37 27 26 30 33 33 35 42 43 40 45 46 40 48 48 35 33 40 38 38 36 36 41
27 27 26 26 27 24 20 21 22 22 25 26 30 35 36 35 38 37 55 54 61 72 36 20 28 27 29 28 21 29 32 39 43 44 46 43 43 47 51 39 45 37 44 40 40 40 42
28 28 27 25 25 24 25 25 25 25 25 27 32 40 40 37 37 44 23 55 70 77 54 19 21 32 36 33 24 25 29 35 42 44 45 43 44 48 49 46 48 41 45 41 46 45 47
28 28 26 27 26 31 34 28 25 25 25 31 38 43 44 45 44 46 30 49 80 77 31 23 25 24 30 35 29 27 26 32 43 48 44 42 42 43 45 49 47 46 46 51 50 55 49
30 28 28 28 27 28 35 33 29 29 27 34 40 53 50 52 55 51 39 56 65 53 32 27 23 31 27 30 31 29 32 29 39 42 45 44 47 41 42 44 48 50 50 54 51 57 47
30 31 30 29 26 29 34 35 31 31 34 38 50 54 51 58 62 61 48 63 55 52 40 32 29 33 34 34 34 36 37 35 32 40 43 50 46 42 43 47 44 51 55 47 55 58 61
31 32 28 28 28 31 35 38 40 40 40 46 51 56 53 70 71 68 60 55 60 54 43 39 32 34 42 41 37 38 43 40 38 36 42 45 51 44 43 48 47 51 54 58 59 64 61
29 26 27 29 31 34 35 33 40 43 49 53 62 63 53 76 79 74 64 56 53 50 48 40 38 42 42 42 41 42 47 51 50 49 47 47 50 48 48 48 49 53 53 54 56 60 59
28 32 32 32 34 36 38 44 44 52 60 63 70 72 61 78 83 72 68 60 51 46 47 38 39 36 45 51 48 45 50 47 52 54 56 50 52 52 49 49 50 51 56 56 63 60 61
32 33 34 38 40 40 47 49 54 60 68 71 75 78 73 81 78 73 74 67 64 57 49 44 36 34 39 44 52 50 52 53 54 59 63 62 55 57 56 57 55 54 55 54 57 58 60
33 34 39 45 47 52 56 60 64 69 75 78 81 83 85 80 74 77 84 76 72 64 61 57 48 36 32 35 43 54 56 61 53 67 66 68 65 61 56 59 57 57 53 53 54 60 55
37 47 56 63 65 66 68 70 75 80 88 84 79 83 77 76 77 80 84 76 76 71 65 64 55 47 41 43 37 51 54 56 56 66 70 69 76 69 57 53 58 57 58 55 55 53 55
66 84 89 90 90 87 83 83 90 95 94 87 76 78 81 82 85 89 83 77 81 78 70 66 60 56 50 44 42 41 49 57 61 59 64 78 80 73 64 56 57 60 56 54 53 56 57
94 96 97 98 97 97 98 98 98 98 92 83 76 81 89 88 84 85 75 83 83 81 72 68 67 68 62 51 44 37 36 44 55 63 64 68 80 86 81 76 65 60 49 57 56 55 57
97 97 97 98 98 98 98 98 98 98 89 80 83 88 93 84 77 79 81 81 80 79 77 76 75 73 67 61 56 47 42 35 39 59 63 73 69 89 94 88 91 46 49 50 57 55 54
97 97 97 96 97 98 98 98 98 98 98 96 94 94 94 87 86 80 80 82 83 82 83 81 77 74 72 68 63 56 51 42 32 44 49 54 64 87 87 92 83 61 57 57 60 54 55
94 93 91 91 94 96 97 98 98 98 98 98 98 98 98 93 80 88 84 83 85 88 88 83 77 78 78 72 70 64 58 44 47 43 44 52 60 73 82 83 80 57 63 62 65 58 50
73 75 77 80 85 88 92 95 98 98 98 98 96 98 98 92 89 88 80 80 85 87 88 82 76 79 75 76 76 72 64 49 46 52 58 63 72 73 81 82 66 55 58 65 79 52 55
85 84 84 83 81 80 83 82 92 97 98 98 95 97 95 93 93 90 84 79 81 81 83 77 80 76 79 77 77 71 66 55 48 45 45 54 64 61 62 74 69 55 54 74 83 74 62
88 90 88 87 88 87 84 86 85 88 97 98 97 97 98 97 93 90 86 84 79 76 80 79 75 69 70 73 70 70 67 65 56 56 48 50 48 56 61 59 46 43 54 70 89 89 73

GFSGBSN_prec_cthk_060.txt.gz
RH
20 20 21 21 22 22 24 31 33 37 41 44 44 45 52 55 59 62 57 47 44 41 37 33 31 28 25 26 25 27 34 28 25 24 24 26 25 27 29 27 28 31 29 29 27 24 27
19 19 19 19 20 20 20 21 24 27 30 32 37 43 47 52 58 64 64 61 52 44 40 36 35 33 34 40 28 30 30 30 27 26 29 30 29 27 28 29 32 33 32 31 28 25 29
19 19 21 20 20 19 18 18 18 17 17 17 20 31 38 48 50 57 65 69 66 51 44 40 39 36 36 42 29 33 32 36 34 28 29 32 33 33 31 32 34 34 34 33 25 22 31
20 20 19 18 19 18 17 17 18 18 17 15 15 18 26 34 47 51 62 69 68 63 53 42 40 37 37 42 33 37 32 32 40 37 37 37 36 35 36 38 39 36 37 34 22 26 33
22 23 22 19 19 18 17 15 14 16 15 14 14 15 17 30 37 44 56 66 71 71 62 52 42 40 40 42 41 39 39 33 40 43 43 39 36 34 35 42 43 41 41 32 29 28 35
24 23 21 21 22 21 17 16 16 15 15 15 17 18 18 19 35 46 51 60 57 68 74 57 54 45 40 42 43 46 46 44 35 43 43 42 39 37 40 46 51 44 35 31 34 32 37
23 25 21 17 19 19 17 16 15 20 19 18 19 21 20 21 26 37 51 56 56 59 67 76 57 44 42 49 52 46 44 47 40 35 41 42 42 40 44 48 39 38 35 29 31 36 36
22 22 21 18 19 19 16 16 16 18 21 22 24 22 21 22 25 33 43 54 70 70 65 54 63 56 44 45 54 49 46 46 43 41 39 42 40 43 46 47 41 42 39 33 32 36 39
24 22 21 20 22 21 18 17 18 18 20 22 23 21 22 27 27 27 35 38 63 74 67 52 44 46 47 42 48 42 47 48 46 45 40 41 39 45 46 48 44 46 39 32 36 39 38
24 23 22 20 24 23 17 19 20 18 19 21 23 22 26 28 26 32 36 42 60 74 78 50 47 41 46 42 43 35 40 44 48 45 45 42 39 43 44 45 45 48 34 33 39 43 46
30 30 28 24 24 24 24 24 21 19 20 20 23 24 26 29 31 37 42 42 50 73 63 32 33 35 43 41 36 37 34 41 48 47 47 43 42 43 48 46 47 44 35 44 46 46 42
31 30 28 26 27 26 24 22 22 26 24 23 24 27 36 32 32 41 42 34 48 74 72 31 27 38 42 44 39 37 36 38 40 51 50 47 45 47 44 46 49 42 47 52 53 47 51
31 30 29 28 28 25 26 23 23 26 24 23 24 34 38 38 37 47 46 39 61 75 39 39 34 35 49 45 45 40 37 36 38 49 52 49 46 46 46 48 50 49 56 64 61 62 56
29 29 28 29 28 27 25 23 25 32 27 26 34 36 39 39 43 52 53 55 64 53 48 43 43 29 41 48 49 44 41 33 29 40 51 50 49 45 45 46 50 53 58 67 62 64 51
29 29 29 29 29 30 28 24 26 34 34 30 41 40 41 38 49 60 61 62 59 49 47 41 46 41 40 46 51 44 45 37 26 33 44 52 49 42 42 43 47 53 60 57 65 69 70
30 31 34 30 30 30 28 26 28 35 35 36 47 49 41 42 57 66 68 61 55 61 49 43 43 49 47 46 48 51 51 54 39 34 36 46 52 46 43 44 44 48 54 65 68 74 76
29 30 37 32 32 27 24 28 30 32 32 48 59 61 42 48 65 74 68 68 55 52 61 47 43 49 53 55 52 54 58 61 61 51 43 44 46 46 49 50 51 52 54 56 59 67 66
27 37 37 32 30 28 31 31 33 37 50 56 65 69 49 61 73 75 71 73 59 49 55 46 44 43 47 51 53 64 61 57 58 63 54 49 51 51 47 49 49 51 56 55 65 64 68
30 38 40 32 30 32 33 37 35 43 55 65 71 66 60 74 75 77 75 68 67 61 59 57 52 49 49 47 49 57 66 62 56 58 74 71 63 62 60 52 50 51 49 52 58 59 62
38 41 39 31 34 35 40 37 40 49 59 72 73 85 67 87 69 75 76 69 74 68 66 64 57 51 49 53 52 54 57 61 59 55 62 67 73 68 64 57 56 55 52 50 53 62 61
39 37 35 32 35 38 46 48 47 58 64 80 78 78 68 86 82 69 72 73 84 77 74 76 68 60 57 54 57 54 50 53 60 67 59 69 72 78 70 65 61 56 56 57 57 56 60
34 35 34 37 40 48 59 64 66 67 77 86 79 74 79 81 74 77 78 79 83 84 83 79 77 76 71 64 52 57 52 49 54 63 71 64 73 77 76 69 62 61 60 60 59 59 57
37 35 37 47 71 87 88 88 82 81 86 85 84 78 83 77 75 80 78 85 84 85 84 83 84 81 76 67 58 48 52 49 50 54 64 75 73 75 76 72 64 59 60 64 64 61 57
46 49 71 90 96 97 97 96 92 90 88 88 86 85 88 75 70 74 85 89 86 85 86 86 87 85 82 74 65 53 46 37 38 46 62 75 82 80 86 75 88 65 56 58 57 56 59
86 95 97 97 97 98 97 97 97 98 92 89 93 91 84 74 79 85 88 87 91 89 88 86 83 84 82 80 72 64 57 46 38 33 45 65 82 89 82 72 63 60 64 58 62 55 59
98 97 97 97 97 98 98 97 98 98 99 98 94 90 83 82 77 86 94 93 93 89 90 85 86 86 85 84 79 77 67 51 50 46 37 50 71 74 83 82 71 45 53 61 52 46 53
80 82 90 95 97 97 97 98 98 98 98 97 94 95 94 86 88 94 91 94 92 91 87 86 88 85 85 88 84 78 73 58 56 65 59 57 59 68 71 68 60 46 39 52 62 48 52
84 83 80 81 81 85 90 96 98 98 98 98 96 97 98 98 95 91 94 93 92 86 85 87 93 84 85 85 83 74 73 64 59 54 62 64 69 69 70 74 59 38 39 45 50 54 63
83 82 84 81 82 84 84 89 96 98 98 99 98 98 98 99 97 98 95 94 88 84 84 88 84 77 76 78 77 74 73 72 67 68 54 53 53 59 57 49 38 41 41 38 40 47 50